Wetterdaten: Freitag, 21.10.2022
Datum Zeit Temp. 2m Temp +5 cm Feuchte A. Luftdruck Regen Wind Richtung Richtung Sonnenschein UV Solar Taupunkt Windchill Windben
21.10.2022 00:00 14,3 C 12,8 C 90 % 1013,2 hPa 0,2 l/m 10,8 km/h (2 Bft) S-SO 163 0 min 0,0 UV-I 0 W/m 12,7 C 12,0 C 19,3 km/h (3 Bft)
21.10.2022 00:03 14,2 C 12,8 C 90 % 1013,1 hPa 0,0 l/m 11,2 km/h (2 Bft) S 184 0 min 0,0 UV-I 0 W/m 12,6 C 11,7 C 20,9 km/h (4 Bft)
21.10.2022 00:06 14,1 C 12,8 C 90 % 1013,0 hPa 0,0 l/m 10,9 km/h (2 Bft) S-SO 166 0 min 0,0 UV-I 0 W/m 12,5 C 11,7 C 19,3 km/h (3 Bft)
21.10.2022 00:09 14,1 C 12,8 C 90 % 1013,0 hPa 0,0 l/m 9,6 km/h (2 Bft) S-SW 202 0 min 0,0 UV-I 0 W/m 12,5 C 12,3 C 17,7 km/h (3 Bft)
21.10.2022 00:12 14,1 C 12,8 C 90 % 1012,9 hPa 0,0 l/m 9,3 km/h (2 Bft) S 170 0 min 0,0 UV-I 0 W/m 12,5 C 12,5 C 14,5 km/h (3 Bft)
21.10.2022 00:15 14,0 C 12,8 C 90 % 1012,9 hPa 0,2 l/m 7,3 km/h (2 Bft) S 171 0 min 0,0 UV-I 0 W/m 12,4 C 13,5 C 11,3 km/h (2 Bft)
21.10.2022 00:18 13,9 C 12,8 C 90 % 1012,8 hPa 0,0 l/m 3,8 km/h (1 Bft) S 169 0 min 0,0 UV-I 0 W/m 12,3 C 13,9 C 8,0 km/h (2 Bft)
21.10.2022 00:21 13,8 C 12,8 C 90 % 1012,7 hPa 0,0 l/m 2,3 km/h (1 Bft) S 169 0 min 0,0 UV-I 0 W/m 12,2 C 13,8 C 8,0 km/h (2 Bft)
21.10.2022 00:24 13,8 C 12,8 C 90 % 1012,7 hPa 0,0 l/m 4,2 km/h (1 Bft) S 169 0 min 0,0 UV-I 0 W/m 12,2 C 13,8 C 8,0 km/h (2 Bft)
21.10.2022 00:27 13,8 C 12,8 C 90 % 1012,8 hPa 0,2 l/m 6,1 km/h (2 Bft) SO 145 0 min 0,0 UV-I 0 W/m 12,2 C 13,8 C 9,7 km/h (2 Bft)
21.10.2022 00:30 13,7 C 12,8 C 91 % 1012,9 hPa 0,0 l/m 6,8 km/h (2 Bft) S-SO 161 0 min 0,0 UV-I 0 W/m 12,3 C 13,5 C 11,3 km/h (2 Bft)
21.10.2022 00:33 13,7 C 12,8 C 91 % 1013,1 hPa 0,0 l/m 8,8 km/h (2 Bft) SO 124 0 min 0,0 UV-I 0 W/m 12,3 C 12,3 C 16,1 km/h (3 Bft)
21.10.2022 00:36 13,6 C 12,8 C 91 % 1013,1 hPa 0,0 l/m 13,5 km/h (3 Bft) SO 142 0 min 0,0 UV-I 0 W/m 12,2 C 10,1 C 20,9 km/h (4 Bft)
21.10.2022 00:39 13,7 C 12,8 C 91 % 1013,0 hPa 0,2 l/m 12,5 km/h (3 Bft) SO 140 0 min 0,0 UV-I 0 W/m 12,3 C 10,6 C 19,3 km/h (3 Bft)
21.10.2022 00:42 13,7 C 12,8 C 91 % 1012,8 hPa 0,0 l/m 10,6 km/h (2 Bft) O-SO 119 0 min 0,0 UV-I 0 W/m 12,3 C 11,4 C 14,5 km/h (3 Bft)
21.10.2022 00:45 13,7 C 12,8 C 92 % 1012,9 hPa 0,0 l/m 11,5 km/h (2 Bft) SO 136 0 min 0,0 UV-I 0 W/m 12,4 C 11,0 C 17,7 km/h (3 Bft)
21.10.2022 00:48 13,6 C 12,8 C 92 % 1012,7 hPa 0,0 l/m 6,3 km/h (2 Bft) SO 132 0 min 0,0 UV-I 0 W/m 12,3 C 13,6 C 14,5 km/h (3 Bft)
21.10.2022 00:51 13,6 C 12,8 C 92 % 1012,5 hPa 0,0 l/m 10,3 km/h (2 Bft) SO 129 0 min 0,0 UV-I 0 W/m 12,3 C 11,4 C 16,1 km/h (3 Bft)
21.10.2022 00:54 13,6 C 12,8 C 92 % 1012,3 hPa 0,0 l/m 9,5 km/h (2 Bft) SO 132 0 min 0,0 UV-I 0 W/m 12,3 C 11,8 C 17,7 km/h (3 Bft)
21.10.2022 00:57 13,5 C 12,8 C 92 % 1012,1 hPa 0,2 l/m 11,5 km/h (2 Bft) O 99 0 min 0,0 UV-I 0 W/m 12,2 C 10,8 C 19,3 km/h (3 Bft)
21.10.2022 01:00 13,5 C 12,8 C 92 % 1012,1 hPa 0,0 l/m 14,2 km/h (3 Bft) SO 136 0 min 0,0 UV-I 0 W/m 12,2 C 9,7 C 22,5 km/h (4 Bft)
21.10.2022 01:03 13,5 C 12,8 C 93 % 1012,2 hPa 0,0 l/m 12,9 km/h (3 Bft) SO 134 0 min 0,0 UV-I 0 W/m 12,4 C 10,2 C 24,1 km/h (4 Bft)
21.10.2022 01:06 13,6 C 12,8 C 93 % 1012,3 hPa 0,0 l/m 10,3 km/h (2 Bft) O-SO 122 0 min 0,0 UV-I 0 W/m 12,5 C 11,4 C 17,7 km/h (3 Bft)
21.10.2022 01:09 13,5 C 12,8 C 93 % 1012,2 hPa 0,0 l/m 11,9 km/h (2 Bft) SO 138 0 min 0,0 UV-I 0 W/m 12,4 C 10,6 C 19,3 km/h (3 Bft)
21.10.2022 01:12 13,5 C 12,8 C 92 % 1012,3 hPa 0,0 l/m 11,1 km/h (2 Bft) SO 136 0 min 0,0 UV-I 0 W/m 12,2 C 10,9 C 17,7 km/h (3 Bft)
21.10.2022 01:15 13,4 C 12,8 C 92 % 1012,3 hPa 0,0 l/m 12,1 km/h (2 Bft) SO 136 0 min 0,0 UV-I 0 W/m 12,1 C 10,4 C 24,1 km/h (4 Bft)
21.10.2022 01:18 13,4 C 12,8 C 92 % 1012,3 hPa 0,0 l/m 10,9 km/h (2 Bft) SO 143 0 min 0,0 UV-I 0 W/m 12,1 C 10,9 C 17,7 km/h (3 Bft)
21.10.2022 01:21 13,4 C 12,2 C 92 % 1012,3 hPa 0,0 l/m 8,9 km/h (2 Bft) S 170 0 min 0,0 UV-I 0 W/m 12,1 C 11,9 C 14,5 km/h (3 Bft)
21.10.2022 01:24 13,4 C 12,2 C 92 % 1012,2 hPa 0,0 l/m 11,6 km/h (2 Bft) S 186 0 min 0,0 UV-I 0 W/m 12,1 C 10,6 C 22,5 km/h (4 Bft)
21.10.2022 01:27 13,3 C 12,2 C 92 % 1012,3 hPa 0,0 l/m 7,6 km/h (2 Bft) S-SW 211 0 min 0,0 UV-I 0 W/m 12,0 C 12,6 C 14,5 km/h (3 Bft)
21.10.2022 01:30 13,3 C 12,2 C 92 % 1012,4 hPa 0,0 l/m 9,7 km/h (2 Bft) S-SO 153 0 min 0,0 UV-I 0 W/m 12,0 C 11,4 C 16,1 km/h (3 Bft)
21.10.2022 01:33 13,2 C 12,2 C 92 % 1012,3 hPa 0,0 l/m 6,4 km/h (2 Bft) S-SO 166 0 min 0,0 UV-I 0 W/m 11,9 C 13,2 C 9,7 km/h (2 Bft)
21.10.2022 01:36 13,2 C 12,2 C 92 % 1012,3 hPa 0,0 l/m 7,1 km/h (2 Bft) S 171 0 min 0,0 UV-I 0 W/m 11,9 C 12,8 C 12,9 km/h (3 Bft)
21.10.2022 01:39 13,2 C 11,7 C 92 % 1012,4 hPa 0,0 l/m 8,7 km/h (2 Bft) SO 136 0 min 0,0 UV-I 0 W/m 11,9 C 11,8 C 19,3 km/h (3 Bft)
21.10.2022 01:42 13,2 C 11,7 C 92 % 1012,2 hPa 0,0 l/m 10,2 km/h (2 Bft) S-SO 148 0 min 0,0 UV-I 0 W/m 11,9 C 11,0 C 17,7 km/h (3 Bft)
21.10.2022 01:45 13,1 C 11,7 C 92 % 1012,3 hPa 0,0 l/m 7,5 km/h (2 Bft) SO 136 0 min 0,0 UV-I 0 W/m 11,8 C 12,4 C 12,9 km/h (3 Bft)
21.10.2022 01:48 13,1 C 11,7 C 92 % 1012,2 hPa 0,0 l/m 7,8 km/h (2 Bft) SO 141 0 min 0,0 UV-I 0 W/m 11,8 C 12,2 C 14,5 km/h (3 Bft)
21.10.2022 01:51 13,1 C 11,7 C 92 % 1012,2 hPa 0,0 l/m 8,1 km/h (2 Bft) SO 142 0 min 0,0 UV-I 0 W/m 11,8 C 12,0 C 12,9 km/h (3 Bft)
21.10.2022 01:54 13,1 C 11,7 C 91 % 1012,2 hPa 0,0 l/m 6,4 km/h (2 Bft) S-SO 166 0 min 0,0 UV-I 0 W/m 11,7 C 13,1 C 12,9 km/h (3 Bft)
21.10.2022 01:57 13,0 C 11,7 C 91 % 1012,1 hPa 0,0 l/m 7,7 km/h (2 Bft) S 182 0 min 0,0 UV-I 0 W/m 11,6 C 12,2 C 12,9 km/h (3 Bft)
21.10.2022 02:00 13,0 C 11,7 C 92 % 1012,2 hPa 0,0 l/m 8,6 km/h (2 Bft) S-SO 155 0 min 0,0 UV-I 0 W/m 11,7 C 11,7 C 16,1 km/h (3 Bft)
21.10.2022 02:03 12,9 C 11,7 C 92 % 1012,1 hPa 0,0 l/m 6,8 km/h (2 Bft) S 169 0 min 0,0 UV-I 0 W/m 11,6 C 12,7 C 14,5 km/h (3 Bft)
21.10.2022 02:06 12,9 C 11,7 C 91 % 1012,1 hPa 0,0 l/m 6,3 km/h (2 Bft) S-SO 150 0 min 0,0 UV-I 0 W/m 11,5 C 12,9 C 9,7 km/h (2 Bft)
21.10.2022 02:09 12,8 C 11,7 C 91 % 1012,0 hPa 0,0 l/m 5,0 km/h (1 Bft) S 180 0 min 0,0 UV-I 0 W/m 11,4 C 12,8 C 11,3 km/h (2 Bft)
21.10.2022 02:12 12,8 C 11,7 C 91 % 1012,0 hPa 0,0 l/m 7,2 km/h (2 Bft) S-SO 148 0 min 0,0 UV-I 0 W/m 11,4 C 12,3 C 12,9 km/h (3 Bft)
21.10.2022 02:15 12,7 C 11,7 C 92 % 1012,0 hPa 0,0 l/m 8,0 km/h (2 Bft) S 175 0 min 0,0 UV-I 0 W/m 11,4 C 11,7 C 14,5 km/h (3 Bft)
21.10.2022 02:18 12,7 C 11,7 C 92 % 1012,1 hPa 0,0 l/m 7,2 km/h (2 Bft) S 184 0 min 0,0 UV-I 0 W/m 11,4 C 12,2 C 9,7 km/h (2 Bft)
21.10.2022 02:21 12,7 C 11,1 C 92 % 1012,1 hPa 0,0 l/m 8,8 km/h (2 Bft) S-SW 200 0 min 0,0 UV-I 0 W/m 11,4 C 11,2 C 12,9 km/h (3 Bft)
21.10.2022 02:24 12,7 C 11,1 C 92 % 1012,2 hPa 0,0 l/m 8,4 km/h (2 Bft) S 179 0 min 0,0 UV-I 0 W/m 11,4 C 11,5 C 12,9 km/h (3 Bft)
21.10.2022 02:27 12,7 C 11,1 C 91 % 1012,1 hPa 0,0 l/m 8,0 km/h (2 Bft) S 187 0 min 0,0 UV-I 0 W/m 11,3 C 11,7 C 12,9 km/h (3 Bft)
21.10.2022 02:30 12,7 C 11,1 C 91 % 1012,0 hPa 0,0 l/m 6,8 km/h (2 Bft) S 178 0 min 0,0 UV-I 0 W/m 11,3 C 12,5 C 11,3 km/h (2 Bft)
21.10.2022 02:33 12,7 C 11,1 C 91 % 1011,9 hPa 0,0 l/m 7,6 km/h (2 Bft) S-SO 153 0 min 0,0 UV-I 0 W/m 11,3 C 11,9 C 16,1 km/h (3 Bft)
21.10.2022 02:36 12,8 C 11,7 C 91 % 1011,7 hPa 0,0 l/m 6,8 km/h (2 Bft) SO 146 0 min 0,0 UV-I 0 W/m 11,4 C 12,6 C 11,3 km/h (2 Bft)
21.10.2022 02:39 12,7 C 11,1 C 91 % 1012,0 hPa 0,0 l/m 4,1 km/h (1 Bft) S-SO 162 0 min 0,0 UV-I 0 W/m 11,3 C 12,7 C 8,0 km/h (2 Bft)
21.10.2022 02:42 12,7 C 11,7 C 91 % 1011,8 hPa 0,0 l/m 7,6 km/h (2 Bft) S-SO 154 0 min 0,0 UV-I 0 W/m 11,3 C 11,9 C 16,1 km/h (3 Bft)
21.10.2022 02:45 12,7 C 11,7 C 91 % 1011,7 hPa 0,0 l/m 7,6 km/h (2 Bft) SO 132 0 min 0,0 UV-I 0 W/m 11,3 C 11,9 C 16,1 km/h (3 Bft)
21.10.2022 02:48 12,7 C 11,7 C 91 % 1011,7 hPa 0,0 l/m 9,3 km/h (2 Bft) S-SO 149 0 min 0,0 UV-I 0 W/m 11,3 C 10,9 C 14,5 km/h (3 Bft)
21.10.2022 02:51 12,8 C 11,7 C 91 % 1011,7 hPa 0,0 l/m 7,9 km/h (2 Bft) SO 142 0 min 0,0 UV-I 0 W/m 11,4 C 11,9 C 14,5 km/h (3 Bft)
21.10.2022 02:54 12,8 C 11,7 C 91 % 1011,8 hPa 0,0 l/m 8,2 km/h (2 Bft) S-SO 154 0 min 0,0 UV-I 0 W/m 11,4 C 11,7 C 14,5 km/h (3 Bft)
21.10.2022 02:57 12,8 C 11,7 C 91 % 1011,6 hPa 0,0 l/m 11,1 km/h (2 Bft) S-SW 200 0 min 0,0 UV-I 0 W/m 11,4 C 10,1 C 17,7 km/h (3 Bft)
21.10.2022 03:00 12,7 C 11,7 C 92 % 1011,7 hPa 0,0 l/m 8,9 km/h (2 Bft) S-SO 150 0 min 0,0 UV-I 0 W/m 11,4 C 11,2 C 16,1 km/h (3 Bft)
21.10.2022 03:03 12,7 C 11,7 C 92 % 1011,6 hPa 0,0 l/m 5,5 km/h (1 Bft) O 90 0 min 0,0 UV-I 0 W/m 11,4 C 12,7 C 11,3 km/h (2 Bft)
21.10.2022 03:06 12,7 C 11,7 C 92 % 1011,5 hPa 0,0 l/m 8,1 km/h (2 Bft) O 101 0 min 0,0 UV-I 0 W/m 11,4 C 11,6 C 14,5 km/h (3 Bft)
21.10.2022 03:09 12,7 C 11,7 C 92 % 1011,6 hPa 0,0 l/m 7,7 km/h (2 Bft) S-SO 159 0 min 0,0 UV-I 0 W/m 11,4 C 11,9 C 14,5 km/h (3 Bft)
21.10.2022 03:12 12,7 C 11,7 C 92 % 1011,4 hPa 0,0 l/m 5,4 km/h (1 Bft) S 179 0 min 0,0 UV-I 0 W/m 11,4 C 12,7 C 11,3 km/h (2 Bft)
21.10.2022 03:15 12,6 C 11,7 C 92 % 1011,3 hPa 0,0 l/m 5,0 km/h (1 Bft) S 172 0 min 0,0 UV-I 0 W/m 11,3 C 12,6 C 11,3 km/h (2 Bft)
21.10.2022 03:18 12,5 C 11,7 C 92 % 1011,3 hPa 0,0 l/m 6,6 km/h (2 Bft) S-SO 158 0 min 0,0 UV-I 0 W/m 11,2 C 12,4 C 11,3 km/h (2 Bft)
21.10.2022 03:21 12,5 C 11,1 C 92 % 1011,3 hPa 0,0 l/m 7,2 km/h (2 Bft) S-SO 162 0 min 0,0 UV-I 0 W/m 11,2 C 12,0 C 14,5 km/h (3 Bft)
21.10.2022 03:24 12,4 C 11,1 C 92 % 1011,2 hPa 0,0 l/m 7,7 km/h (2 Bft) SO 134 0 min 0,0 UV-I 0 W/m 11,1 C 11,6 C 16,1 km/h (3 Bft)
21.10.2022 03:27 12,4 C 11,1 C 92 % 1011,3 hPa 0,0 l/m 8,2 km/h (2 Bft) S-SO 150 0 min 0,0 UV-I 0 W/m 11,1 C 11,3 C 14,5 km/h (3 Bft)
21.10.2022 03:30 12,4 C 11,1 C 92 % 1011,2 hPa 0,0 l/m 13,2 km/h (3 Bft) SO 142 0 min 0,0 UV-I 0 W/m 11,1 C 8,8 C 20,9 km/h (4 Bft)
21.10.2022 03:33 12,4 C 11,7 C 92 % 1011,1 hPa 0,0 l/m 15,6 km/h (3 Bft) SO 145 0 min 0,0 UV-I 0 W/m 11,1 C 7,8 C 24,1 km/h (4 Bft)
21.10.2022 03:36 12,4 C 11,1 C 92 % 1011,1 hPa 0,0 l/m 10,8 km/h (2 Bft) SO 135 0 min 0,0 UV-I 0 W/m 11,1 C 9,8 C 17,7 km/h (3 Bft)
21.10.2022 03:39 12,3 C 11,1 C 92 % 1011,1 hPa 0,0 l/m 12,0 km/h (2 Bft) SO 133 0 min 0,0 UV-I 0 W/m 11,0 C 9,2 C 19,3 km/h (3 Bft)
21.10.2022 03:42 12,3 C 11,1 C 92 % 1011,0 hPa 0,0 l/m 10,6 km/h (2 Bft) O-SO 118 0 min 0,0 UV-I 0 W/m 11,0 C 9,8 C 20,9 km/h (4 Bft)
21.10.2022 03:45 12,3 C 11,1 C 92 % 1011,0 hPa 0,0 l/m 10,1 km/h (2 Bft) SO 146 0 min 0,0 UV-I 0 W/m 11,0 C 10,1 C 19,3 km/h (3 Bft)
21.10.2022 03:48 12,3 C 11,1 C 92 % 1011,0 hPa 0,0 l/m 11,0 km/h (2 Bft) S-SO 167 0 min 0,0 UV-I 0 W/m 11,0 C 9,6 C 16,1 km/h (3 Bft)
21.10.2022 03:51 12,3 C 11,1 C 92 % 1011,0 hPa 0,0 l/m 12,1 km/h (2 Bft) SO 130 0 min 0,0 UV-I 0 W/m 11,0 C 9,1 C 19,3 km/h (3 Bft)
21.10.2022 03:54 12,3 C 11,1 C 92 % 1011,0 hPa 0,0 l/m 12,1 km/h (2 Bft) S-SO 155 0 min 0,0 UV-I 0 W/m 11,0 C 9,1 C 17,7 km/h (3 Bft)
21.10.2022 03:57 12,3 C 11,1 C 92 % 1010,9 hPa 0,0 l/m 14,5 km/h (3 Bft) O-SO 123 0 min 0,0 UV-I 0 W/m 11,0 C 8,1 C 25,7 km/h (4 Bft)
21.10.2022 04:00 12,3 C 11,1 C 92 % 1010,9 hPa 0,0 l/m 10,8 km/h (2 Bft) SO 143 0 min 0,0 UV-I 0 W/m 11,0 C 9,7 C 19,3 km/h (3 Bft)
21.10.2022 04:03 12,2 C 11,1 C 92 % 1011,0 hPa 0,0 l/m 10,3 km/h (2 Bft) S-SO 148 0 min 0,0 UV-I 0 W/m 10,9 C 9,9 C 17,7 km/h (3 Bft)
21.10.2022 04:06 12,2 C 11,1 C 92 % 1010,9 hPa 0,0 l/m 11,2 km/h (2 Bft) S-SO 165 0 min 0,0 UV-I 0 W/m 10,9 C 9,4 C 17,7 km/h (3 Bft)
21.10.2022 04:09 12,2 C 11,1 C 92 % 1010,8 hPa 0,0 l/m 9,2 km/h (2 Bft) SO 134 0 min 0,0 UV-I 0 W/m 10,9 C 10,5 C 16,1 km/h (3 Bft)
21.10.2022 04:12 12,2 C 11,1 C 92 % 1010,9 hPa 0,0 l/m 7,4 km/h (2 Bft) SO 135 0 min 0,0 UV-I 0 W/m 10,9 C 11,5 C 14,5 km/h (3 Bft)
21.10.2022 04:15 12,2 C 11,1 C 92 % 1010,8 hPa 0,0 l/m 7,7 km/h (2 Bft) SO 128 0 min 0,0 UV-I 0 W/m 10,9 C 11,3 C 12,9 km/h (3 Bft)
21.10.2022 04:18 12,1 C 11,1 C 92 % 1010,8 hPa 0,0 l/m 6,2 km/h (2 Bft) SO 132 0 min 0,0 UV-I 0 W/m 10,8 C 12,1 C 11,3 km/h (2 Bft)
21.10.2022 04:21 12,1 C 10,6 C 92 % 1010,8 hPa 0,0 l/m 4,5 km/h (1 Bft) S-SO 151 0 min 0,0 UV-I 0 W/m 10,8 C 12,1 C 11,3 km/h (2 Bft)
21.10.2022 04:24 12,1 C 10,6 C 92 % 1010,8 hPa 0,0 l/m 4,8 km/h (1 Bft) SO 144 0 min 0,0 UV-I 0 W/m 10,8 C 12,1 C 8,0 km/h (2 Bft)
21.10.2022 04:27 12,0 C 10,6 C 92 % 1010,7 hPa 0,0 l/m 3,9 km/h (1 Bft) S-SO 158 0 min 0,0 UV-I 0 W/m 10,7 C 12,0 C 11,3 km/h (2 Bft)
21.10.2022 04:30 12,0 C 10,6 C 92 % 1010,8 hPa 0,0 l/m 7,1 km/h (2 Bft) O-SO 121 0 min 0,0 UV-I 0 W/m 10,7 C 11,5 C 14,5 km/h (3 Bft)
21.10.2022 04:33 12,0 C 11,1 C 92 % 1010,7 hPa 0,0 l/m 8,0 km/h (2 Bft) SO 128 0 min 0,0 UV-I 0 W/m 10,7 C 11,0 C 16,1 km/h (3 Bft)
21.10.2022 04:36 12,1 C 11,1 C 93 % 1010,8 hPa 0,0 l/m 9,0 km/h (2 Bft) S-SO 150 0 min 0,0 UV-I 0 W/m 11,0 C 10,5 C 16,1 km/h (3 Bft)
21.10.2022 04:39 12,2 C 11,1 C 93 % 1010,7 hPa 0,0 l/m 9,0 km/h (2 Bft) S-SO 147 0 min 0,0 UV-I 0 W/m 11,1 C 10,6 C 14,5 km/h (3 Bft)
21.10.2022 04:42 12,2 C 11,1 C 93 % 1010,7 hPa 0,0 l/m 9,1 km/h (2 Bft) SO 135 0 min 0,0 UV-I 0 W/m 11,1 C 10,5 C 14,5 km/h (3 Bft)
21.10.2022 04:45 12,2 C 11,1 C 93 % 1010,6 hPa 0,0 l/m 8,9 km/h (2 Bft) S-SO 148 0 min 0,0 UV-I 0 W/m 11,1 C 10,6 C 14,5 km/h (3 Bft)
21.10.2022 04:48 12,2 C 11,1 C 93 % 1010,6 hPa 0,0 l/m 8,4 km/h (2 Bft) SO 130 0 min 0,0 UV-I 0 W/m 11,1 C 10,9 C 17,7 km/h (3 Bft)
21.10.2022 04:51 12,3 C 11,7 C 93 % 1010,6 hPa 0,0 l/m 10,5 km/h (2 Bft) S 186 0 min 0,0 UV-I 0 W/m 11,2 C 9,9 C 16,1 km/h (3 Bft)
21.10.2022 04:54 12,3 C 11,7 C 93 % 1010,6 hPa 0,0 l/m 9,4 km/h (2 Bft) SO 146 0 min 0,0 UV-I 0 W/m 11,2 C 10,5 C 19,3 km/h (3 Bft)
21.10.2022 04:57 12,3 C 11,7 C 93 % 1010,6 hPa 0,0 l/m 8,3 km/h (2 Bft) S-SO 158 0 min 0,0 UV-I 0 W/m 11,2 C 11,1 C 14,5 km/h (3 Bft)
21.10.2022 05:00 12,3 C 11,7 C 93 % 1010,6 hPa 0,0 l/m 7,8 km/h (2 Bft) SO 140 0 min 0,0 UV-I 0 W/m 11,2 C 11,4 C 16,1 km/h (3 Bft)
21.10.2022 05:03 12,3 C 11,7 C 93 % 1010,5 hPa 0,0 l/m 11,2 km/h (2 Bft) O-SO 115 0 min 0,0 UV-I 0 W/m 11,2 C 9,5 C 20,9 km/h (4 Bft)
21.10.2022 05:06 12,3 C 11,7 C 93 % 1010,6 hPa 0,0 l/m 9,6 km/h (2 Bft) S-SO 149 0 min 0,0 UV-I 0 W/m 11,2 C 10,3 C 12,9 km/h (3 Bft)
21.10.2022 05:09 12,3 C 11,7 C 93 % 1010,7 hPa 0,0 l/m 9,9 km/h (2 Bft) S-SO 147 0 min 0,0 UV-I 0 W/m 11,2 C 10,2 C 20,9 km/h (4 Bft)
21.10.2022 05:12 12,3 C 11,7 C 93 % 1010,6 hPa 0,0 l/m 7,4 km/h (2 Bft) S 178 0 min 0,0 UV-I 0 W/m 11,2 C 11,6 C 14,5 km/h (3 Bft)
21.10.2022 05:15 12,3 C 11,7 C 93 % 1010,6 hPa 0,0 l/m 8,0 km/h (2 Bft) SO 131 0 min 0,0 UV-I 0 W/m 11,2 C 11,3 C 14,5 km/h (3 Bft)
21.10.2022 05:18 12,3 C 11,7 C 93 % 1010,5 hPa 0,0 l/m 9,3 km/h (2 Bft) SO 143 0 min 0,0 UV-I 0 W/m 11,2 C 10,5 C 16,1 km/h (3 Bft)
21.10.2022 05:21 12,3 C 11,7 C 93 % 1010,5 hPa 0,0 l/m 7,0 km/h (2 Bft) SO 146 0 min 0,0 UV-I 0 W/m 11,2 C 11,9 C 14,5 km/h (3 Bft)
21.10.2022 05:24 12,3 C 11,7 C 93 % 1010,4 hPa 0,0 l/m 7,1 km/h (2 Bft) SO 139 0 min 0,0 UV-I 0 W/m 11,2 C 11,8 C 14,5 km/h (3 Bft)
21.10.2022 05:27 12,3 C 11,7 C 93 % 1010,4 hPa 0,0 l/m 7,8 km/h (2 Bft) SO 139 0 min 0,0 UV-I 0 W/m 11,2 C 11,4 C 12,9 km/h (3 Bft)
21.10.2022 05:30 12,4 C 11,7 C 93 % 1010,4 hPa 0,0 l/m 9,9 km/h (2 Bft) SO 135 0 min 0,0 UV-I 0 W/m 11,3 C 10,3 C 19,3 km/h (3 Bft)
21.10.2022 05:33 12,4 C 11,7 C 93 % 1010,4 hPa 0,0 l/m 9,1 km/h (2 Bft) S-SO 149 0 min 0,0 UV-I 0 W/m 11,3 C 10,7 C 14,5 km/h (3 Bft)
21.10.2022 05:36 12,3 C 11,7 C 93 % 1010,3 hPa 0,0 l/m 7,4 km/h (2 Bft) SO 134 0 min 0,0 UV-I 0 W/m 11,2 C 11,6 C 19,3 km/h (3 Bft)
21.10.2022 05:39 12,3 C 11,7 C 93 % 1010,3 hPa 0,0 l/m 11,1 km/h (2 Bft) S-SO 154 0 min 0,0 UV-I 0 W/m 11,2 C 9,6 C 19,3 km/h (3 Bft)
21.10.2022 05:42 12,3 C 11,7 C 93 % 1010,3 hPa 0,0 l/m 12,0 km/h (2 Bft) S-SO 157 0 min 0,0 UV-I 0 W/m 11,2 C 9,2 C 20,9 km/h (4 Bft)
21.10.2022 05:45 12,3 C 11,7 C 93 % 1010,3 hPa 0,0 l/m 10,2 km/h (2 Bft) S 170 0 min 0,0 UV-I 0 W/m 11,2 C 10,0 C 19,3 km/h (3 Bft)
21.10.2022 05:48 12,4 C 11,7 C 93 % 1010,4 hPa 0,0 l/m 11,0 km/h (2 Bft) SO 140 0 min 0,0 UV-I 0 W/m 11,3 C 9,7 C 17,7 km/h (3 Bft)
21.10.2022 05:51 12,4 C 11,7 C 93 % 1010,4 hPa 0,0 l/m 9,4 km/h (2 Bft) S-SO 150 0 min 0,0 UV-I 0 W/m 11,3 C 10,6 C 17,7 km/h (3 Bft)
21.10.2022 05:54 12,4 C 11,7 C 93 % 1010,4 hPa 0,0 l/m 11,9 km/h (2 Bft) SO 138 0 min 0,0 UV-I 0 W/m 11,3 C 9,3 C 17,7 km/h (3 Bft)
21.10.2022 05:57 12,4 C 11,7 C 93 % 1010,3 hPa 0,0 l/m 7,1 km/h (2 Bft) SO 146 0 min 0,0 UV-I 0 W/m 11,3 C 11,9 C 11,3 km/h (2 Bft)
21.10.2022 06:00 12,4 C 11,7 C 93 % 1010,3 hPa 0,0 l/m 7,3 km/h (2 Bft) SO 124 0 min 0,0 UV-I 0 W/m 11,3 C 11,8 C 12,9 km/h (3 Bft)
21.10.2022 06:03 12,4 C 11,7 C 93 % 1010,3 hPa 0,0 l/m 9,9 km/h (2 Bft) O-SO 121 0 min 0,0 UV-I 0 W/m 11,3 C 10,3 C 16,1 km/h (3 Bft)
21.10.2022 06:06 12,4 C 11,7 C 93 % 1010,3 hPa 0,0 l/m 10,1 km/h (2 Bft) SO 135 0 min 0,0 UV-I 0 W/m 11,3 C 10,2 C 16,1 km/h (3 Bft)
21.10.2022 06:09 12,3 C 11,7 C 93 % 1010,3 hPa 0,0 l/m 8,9 km/h (2 Bft) SO 137 0 min 0,0 UV-I 0 W/m 11,2 C 10,7 C 16,1 km/h (3 Bft)
21.10.2022 06:12 12,3 C 11,7 C 93 % 1010,2 hPa 0,0 l/m 12,4 km/h (3 Bft) SO 141 0 min 0,0 UV-I 0 W/m 11,2 C 9,0 C 20,9 km/h (4 Bft)
21.10.2022 06:15 12,3 C 11,7 C 93 % 1010,3 hPa 0,0 l/m 13,3 km/h (3 Bft) SO 136 0 min 0,0 UV-I 0 W/m 11,2 C 8,6 C 20,9 km/h (4 Bft)
21.10.2022 06:18 12,3 C 11,7 C 93 % 1010,2 hPa 0,0 l/m 11,2 km/h (2 Bft) SO 140 0 min 0,0 UV-I 0 W/m 11,2 C 9,5 C 17,7 km/h (3 Bft)
21.10.2022 06:21 12,3 C 11,7 C 93 % 1010,3 hPa 0,0 l/m 11,1 km/h (2 Bft) SO 136 0 min 0,0 UV-I 0 W/m 11,2 C 9,6 C 17,7 km/h (3 Bft)
21.10.2022 06:24 12,3 C 11,7 C 93 % 1010,3 hPa 0,0 l/m 12,5 km/h (3 Bft) S-SO 157 0 min 0,0 UV-I 0 W/m 11,2 C 8,9 C 19,3 km/h (3 Bft)
21.10.2022 06:27 12,3 C 11,7 C 93 % 1010,2 hPa 0,0 l/m 8,5 km/h (2 Bft) S-SO 153 0 min 0,0 UV-I 0 W/m 11,2 C 11,0 C 14,5 km/h (3 Bft)
21.10.2022 06:30 12,4 C 11,7 C 93 % 1010,1 hPa 0,0 l/m 10,9 km/h (2 Bft) O-SO 121 0 min 0,0 UV-I 0 W/m 11,3 C 9,8 C 19,3 km/h (3 Bft)
21.10.2022 06:33 12,4 C 11,7 C 93 % 1010,1 hPa 0,0 l/m 9,4 km/h (2 Bft) SO 146 0 min 0,0 UV-I 0 W/m 11,3 C 10,6 C 16,1 km/h (3 Bft)
21.10.2022 06:36 12,4 C 11,7 C 93 % 1010,2 hPa 0,0 l/m 12,4 km/h (3 Bft) SO 138 0 min 0,0 UV-I 0 W/m 11,3 C 9,1 C 19,3 km/h (3 Bft)
21.10.2022 06:39 12,4 C 11,7 C 93 % 1010,2 hPa 0,0 l/m 10,5 km/h (2 Bft) S-SO 154 0 min 0,0 UV-I 0 W/m 11,3 C 10,0 C 24,1 km/h (4 Bft)
21.10.2022 06:42 12,4 C 11,7 C 93 % 1010,2 hPa 0,0 l/m 14,1 km/h (3 Bft) S-SO 153 0 min 0,0 UV-I 0 W/m 11,3 C 8,4 C 22,5 km/h (4 Bft)
21.10.2022 06:45 12,5 C 11,7 C 93 % 1010,1 hPa 0,0 l/m 10,6 km/h (2 Bft) SO 134 0 min 0,0 UV-I 0 W/m 11,4 C 10,1 C 17,7 km/h (3 Bft)
21.10.2022 06:48 12,5 C 11,7 C 93 % 1010,1 hPa 0,0 l/m 11,9 km/h (2 Bft) S-SO 153 0 min 0,0 UV-I 0 W/m 11,4 C 9,4 C 17,7 km/h (3 Bft)
21.10.2022 06:51 12,6 C 11,7 C 93 % 1010,0 hPa 0,0 l/m 15,0 km/h (3 Bft) S-SO 160 0 min 0,0 UV-I 0 W/m 11,5 C 8,3 C 25,7 km/h (4 Bft)
21.10.2022 06:54 12,6 C 11,7 C 93 % 1010,1 hPa 0,0 l/m 10,2 km/h (2 Bft) S-SO 166 0 min 0,0 UV-I 0 W/m 11,5 C 10,4 C 16,1 km/h (3 Bft)
21.10.2022 06:57 12,6 C 11,7 C 93 % 1010,0 hPa 0,0 l/m 10,2 km/h (2 Bft) S-SO 153 0 min 0,0 UV-I 0 W/m 11,5 C 10,4 C 17,7 km/h (3 Bft)
21.10.2022 07:00 12,6 C 11,7 C 93 % 1009,9 hPa 0,0 l/m 10,6 km/h (2 Bft) S 188 0 min 0,0 UV-I 0 W/m 11,5 C 10,2 C 19,3 km/h (3 Bft)
21.10.2022 07:01 12,6 C 12,2 C 93 % 1010,0 hPa 0,0 l/m 11,3 km/h (2 Bft) S-SO 157 0 min 0,0 UV-I 0 W/m 11,5 C 9,8 C 19,3 km/h (3 Bft)
21.10.2022 07:03 12,7 C 12,2 C 93 % 1010,0 hPa 0,0 l/m 8,5 km/h (2 Bft) S-SO 158 0 min 0,0 UV-I 0 W/m 11,6 C 11,4 C 11,3 km/h (2 Bft)
21.10.2022 07:06 12,7 C 12,2 C 93 % 1010,0 hPa 0,0 l/m 9,7 km/h (2 Bft) S-SO 165 0 min 0,0 UV-I 0 W/m 11,6 C 10,7 C 17,7 km/h (3 Bft)
21.10.2022 07:09 12,7 C 12,2 C 93 % 1009,9 hPa 0,0 l/m 6,4 km/h (2 Bft) S-SO 161 0 min 0,0 UV-I 0 W/m 11,6 C 12,7 C 9,7 km/h (2 Bft)
21.10.2022 07:12 12,7 C 12,2 C 93 % 1009,8 hPa 0,0 l/m 7,2 km/h (2 Bft) S-SW 195 0 min 0,0 UV-I 0 W/m 11,6 C 12,2 C 11,3 km/h (2 Bft)
21.10.2022 07:15 12,7 C 12,2 C 93 % 1009,8 hPa 0,0 l/m 3,7 km/h (1 Bft) S-SW 194 0 min 0,0 UV-I 0 W/m 11,6 C 12,7 C 11,3 km/h (2 Bft)
21.10.2022 07:18 12,8 C 12,2 C 93 % 1009,8 hPa 0,0 l/m 4,9 km/h (1 Bft) S-SO 150 0 min 0,0 UV-I 0 W/m 11,7 C 12,8 C 8,0 km/h (2 Bft)
21.10.2022 07:21 12,8 C 12,2 C 93 % 1009,6 hPa 0,0 l/m 3,6 km/h (1 Bft) S-SO 153 0 min 0,0 UV-I 0 W/m 11,7 C 12,8 C 6,4 km/h (2 Bft)
21.10.2022 07:24 12,8 C 12,2 C 93 % 1009,5 hPa 0,0 l/m 5,5 km/h (1 Bft) S-SO 153 0 min 0,0 UV-I 0 W/m 11,7 C 12,8 C 12,9 km/h (3 Bft)
21.10.2022 07:27 12,8 C 12,2 C 93 % 1009,5 hPa 0,0 l/m 9,1 km/h (2 Bft) S-SO 159 0 min 0,0 UV-I 0 W/m 11,7 C 11,2 C 16,1 km/h (3 Bft)
21.10.2022 07:30 12,8 C 12,2 C 93 % 1009,5 hPa 0,0 l/m 8,3 km/h (2 Bft) SO 143 0 min 0,0 UV-I 0 W/m 11,7 C 11,6 C 12,9 km/h (3 Bft)
21.10.2022 07:33 12,8 C 12,2 C 93 % 1009,5 hPa 0,0 l/m 11,9 km/h (2 Bft) SO 142 0 min 0,0 UV-I 0 W/m 11,7 C 9,8 C 17,7 km/h (3 Bft)
21.10.2022 07:36 12,8 C 12,2 C 93 % 1009,5 hPa 0,0 l/m 8,0 km/h (2 Bft) S-SO 148 0 min 0,0 UV-I 0 W/m 11,7 C 11,8 C 12,9 km/h (3 Bft)
21.10.2022 07:39 12,8 C 12,2 C 93 % 1009,5 hPa 0,0 l/m 7,1 km/h (2 Bft) SO 134 0 min 0,0 UV-I 0 W/m 11,7 C 12,4 C 12,9 km/h (3 Bft)
21.10.2022 07:42 12,8 C 12,2 C 93 % 1009,4 hPa 0,0 l/m 7,3 km/h (2 Bft) S-SO 166 0 min 0,0 UV-I 0 W/m 11,7 C 12,2 C 12,9 km/h (3 Bft)
21.10.2022 07:45 12,8 C 12,2 C 93 % 1009,5 hPa 0,0 l/m 8,6 km/h (2 Bft) SO 138 0 min 0,0 UV-I 0 W/m 11,7 C 11,4 C 12,9 km/h (3 Bft)
21.10.2022 07:48 12,9 C 12,2 C 93 % 1009,4 hPa 0,0 l/m 8,8 km/h (2 Bft) SO 142 0 min 0,0 UV-I 0 W/m 11,8 C 11,4 C 16,1 km/h (3 Bft)
21.10.2022 07:51 12,8 C 12,2 C 93 % 1009,4 hPa 0,0 l/m 7,5 km/h (2 Bft) SO 128 0 min 0,0 UV-I 0 W/m 11,7 C 12,1 C 12,9 km/h (3 Bft)
21.10.2022 07:54 12,8 C 12,2 C 93 % 1009,4 hPa 0,0 l/m 9,9 km/h (2 Bft) S 170 0 min 0,0 UV-I 0 W/m 11,7 C 10,7 C 16,1 km/h (3 Bft)
21.10.2022 07:57 12,9 C 12,2 C 93 % 1009,4 hPa 0,0 l/m 8,4 km/h (2 Bft) S-SW 198 0 min 0,0 UV-I 0 W/m 11,8 C 11,7 C 16,1 km/h (3 Bft)
21.10.2022 08:00 12,9 C 12,2 C 93 % 1009,4 hPa 0,0 l/m 8,3 km/h (2 Bft) S-SO 167 0 min 0,0 UV-I 0 W/m 11,8 C 11,7 C 17,7 km/h (3 Bft)
21.10.2022 08:03 12,9 C 12,2 C 93 % 1009,2 hPa 0,0 l/m 8,8 km/h (2 Bft) S-SO 153 0 min 0,0 UV-I 0 W/m 11,8 C 11,4 C 14,5 km/h (3 Bft)
21.10.2022 08:07 12,9 C 12,2 C 93 % 1009,3 hPa 0,0 l/m 11,3 km/h (2 Bft) SO 138 0 min 0,0 UV-I 0 W/m 11,8 C 10,2 C 17,7 km/h (3 Bft)
21.10.2022 08:09 12,9 C 12,2 C 93 % 1009,5 hPa 0,0 l/m 11,5 km/h (2 Bft) S 178 0 min 0,0 UV-I 0 W/m 11,8 C 10,1 C 17,7 km/h (3 Bft)
21.10.2022 08:12 12,9 C 12,2 C 93 % 1009,5 hPa 0,0 l/m 13,6 km/h (3 Bft) S-SO 161 0 min 0,0 UV-I 0 W/m 11,8 C 9,2 C 17,7 km/h (3 Bft)
21.10.2022 08:15 12,9 C 12,2 C 93 % 1009,5 hPa 0,0 l/m 11,0 km/h (2 Bft) SO 133 0 min 0,0 UV-I 0 W/m 11,8 C 10,3 C 17,7 km/h (3 Bft)
21.10.2022 08:18 12,9 C 12,2 C 93 % 1009,5 hPa 0,0 l/m 9,8 km/h (2 Bft) S-SO 148 0 min 0,0 UV-I 0 W/m 11,8 C 10,9 C 17,7 km/h (3 Bft)
21.10.2022 08:21 12,9 C 12,2 C 93 % 1009,6 hPa 0,0 l/m 9,5 km/h (2 Bft) S-SO 148 0 min 0,0 UV-I 0 W/m 11,8 C 11,1 C 17,7 km/h (3 Bft)
21.10.2022 08:24 13,0 C 12,2 C 93 % 1009,6 hPa 0,0 l/m 7,7 km/h (2 Bft) S 175 0 min 0,0 UV-I 0 W/m 11,9 C 12,2 C 14,5 km/h (3 Bft)
21.10.2022 08:27 13,0 C 12,2 C 93 % 1009,6 hPa 0,0 l/m 9,3 km/h (2 Bft) SO 146 0 min 0,0 UV-I 0 W/m 11,9 C 11,3 C 19,3 km/h (3 Bft)
21.10.2022 08:30 13,1 C 12,8 C 93 % 1009,7 hPa 0,0 l/m 8,5 km/h (2 Bft) S-SO 148 0 min 0,0 UV-I 0 W/m 12,0 C 11,8 C 16,1 km/h (3 Bft)
21.10.2022 08:33 13,1 C 12,8 C 93 % 1009,7 hPa 0,0 l/m 9,0 km/h (2 Bft) S-SW 192 0 min 0,0 UV-I 0 W/m 12,0 C 11,5 C 17,7 km/h (3 Bft)
21.10.2022 08:36 13,2 C 12,8 C 93 % 1009,6 hPa 0,0 l/m 10,7 km/h (2 Bft) S-SO 167 0 min 0,0 UV-I 0 W/m 12,1 C 10,8 C 17,7 km/h (3 Bft)
21.10.2022 08:39 13,2 C 12,8 C 93 % 1009,7 hPa 0,0 l/m 12,5 km/h (3 Bft) S-SO 151 0 min 0,0 UV-I 0 W/m 12,1 C 10,0 C 24,1 km/h (4 Bft)
21.10.2022 08:42 13,3 C 12,8 C 93 % 1009,9 hPa 0,0 l/m 12,2 km/h (2 Bft) SO 128 0 min 0,0 UV-I 0 W/m 12,2 C 10,2 C 19,3 km/h (3 Bft)
21.10.2022 08:45 13,3 C 12,8 C 93 % 1009,8 hPa 0,0 l/m 14,2 km/h (3 Bft) S-SO 148 0 min 0,0 UV-I 0 W/m 12,2 C 9,4 C 20,9 km/h (4 Bft)
21.10.2022 08:48 13,3 C 12,8 C 92 % 1009,7 hPa 0,0 l/m 10,7 km/h (2 Bft) S-SO 166 0 min 0,0 UV-I 0 W/m 12,0 C 10,9 C 19,3 km/h (3 Bft)
21.10.2022 08:51 13,3 C 12,8 C 92 % 1009,8 hPa 0,0 l/m 9,9 km/h (2 Bft) S-SO 157 0 min 0,0 UV-I 0 W/m 12,0 C 11,3 C 17,7 km/h (3 Bft)
21.10.2022 08:54 13,3 C 12,8 C 92 % 1009,9 hPa 0,0 l/m 11,6 km/h (2 Bft) S 175 0 min 0,0 UV-I 3 W/m 12,0 C 10,5 C 17,7 km/h (3 Bft)
21.10.2022 08:57 13,3 C 12,8 C 92 % 1009,9 hPa 0,2 l/m 8,3 km/h (2 Bft) S-SO 163 0 min 0,0 UV-I 5 W/m 12,0 C 12,1 C 12,9 km/h (3 Bft)
21.10.2022 09:00 13,3 C 12,8 C 92 % 1010,0 hPa 0,0 l/m 9,8 km/h (2 Bft) S 182 0 min 0,0 UV-I 5 W/m 12,0 C 11,3 C 16,1 km/h (3 Bft)
21.10.2022 09:03 13,3 C 12,8 C 92 % 1010,1 hPa 0,2 l/m 9,0 km/h (2 Bft) S 171 0 min 0,0 UV-I 5 W/m 12,0 C 11,8 C 22,5 km/h (4 Bft)
21.10.2022 09:06 13,2 C 12,8 C 92 % 1010,0 hPa 0,0 l/m 12,7 km/h (3 Bft) S 174 0 min 0,0 UV-I 2 W/m 11,9 C 9,9 C 20,9 km/h (4 Bft)
21.10.2022 09:09 13,3 C 12,8 C 92 % 1010,0 hPa 0,0 l/m 10,1 km/h (2 Bft) S 183 0 min 0,0 UV-I 6 W/m 12,0 C 11,2 C 16,1 km/h (3 Bft)
21.10.2022 09:12 13,3 C 12,8 C 92 % 1010,1 hPa 0,2 l/m 9,3 km/h (2 Bft) S 183 0 min 0,0 UV-I 9 W/m 12,0 C 11,6 C 17,7 km/h (3 Bft)
21.10.2022 09:15 13,3 C 12,8 C 92 % 1010,2 hPa 0,0 l/m 11,9 km/h (2 Bft) S-SO 168 0 min 0,0 UV-I 11 W/m 12,0 C 10,4 C 19,3 km/h (3 Bft)
21.10.2022 09:18 13,3 C 12,8 C 92 % 1010,2 hPa 0,0 l/m 10,3 km/h (2 Bft) S 170 0 min 0,0 UV-I 8 W/m 12,0 C 11,1 C 19,3 km/h (3 Bft)
21.10.2022 09:21 13,3 C 12,8 C 92 % 1010,2 hPa 0,2 l/m 10,6 km/h (2 Bft) SO 138 0 min 0,0 UV-I 7 W/m 12,0 C 10,9 C 14,5 km/h (3 Bft)
21.10.2022 09:24 13,3 C 12,8 C 92 % 1010,3 hPa 0,0 l/m 11,6 km/h (2 Bft) S-SO 155 0 min 0,0 UV-I 9 W/m 12,0 C 10,5 C 20,9 km/h (4 Bft)
21.10.2022 09:27 13,3 C 12,8 C 92 % 1010,3 hPa 0,0 l/m 12,2 km/h (2 Bft) S-SO 152 0 min 0,0 UV-I 11 W/m 12,0 C 10,2 C 24,1 km/h (4 Bft)
21.10.2022 09:30 13,3 C 12,8 C 92 % 1010,2 hPa 0,0 l/m 6,7 km/h (2 Bft) SW 220 0 min 0,0 UV-I 12 W/m 12,0 C 13,1 C 12,9 km/h (3 Bft)
21.10.2022 09:33 13,3 C 12,8 C 92 % 1010,4 hPa 0,0 l/m 10,4 km/h (2 Bft) S-SW 198 0 min 0,0 UV-I 12 W/m 12,0 C 11,0 C 16,1 km/h (3 Bft)
21.10.2022 09:36 13,2 C 12,8 C 93 % 1010,4 hPa 0,0 l/m 8,4 km/h (2 Bft) S-SW 210 0 min 0,0 UV-I 12 W/m 12,1 C 12,0 C 16,1 km/h (3 Bft)
21.10.2022 09:39 13,2 C 12,2 C 93 % 1010,5 hPa 0,2 l/m 7,4 km/h (2 Bft) S 173 0 min 0,0 UV-I 11 W/m 12,1 C 12,6 C 16,1 km/h (3 Bft)
21.10.2022 09:42 13,2 C 12,2 C 93 % 1010,7 hPa 0,0 l/m 8,7 km/h (2 Bft) S 186 0 min 0,0 UV-I 9 W/m 12,1 C 11,8 C 14,5 km/h (3 Bft)
21.10.2022 09:45 13,2 C 12,2 C 93 % 1010,7 hPa 0,0 l/m 9,0 km/h (2 Bft) S 188 0 min 0,0 UV-I 9 W/m 12,1 C 11,6 C 12,9 km/h (3 Bft)
21.10.2022 09:48 13,2 C 12,2 C 93 % 1010,7 hPa 0,2 l/m 7,9 km/h (2 Bft) S-SW 196 0 min 0,0 UV-I 9 W/m 12,1 C 12,3 C 17,7 km/h (3 Bft)
21.10.2022 09:51 13,1 C 12,2 C 93 % 1010,7 hPa 0,2 l/m 10,8 km/h (2 Bft) S-SO 163 0 min 0,0 UV-I 9 W/m 12,0 C 10,6 C 19,3 km/h (3 Bft)
21.10.2022 09:54 13,2 C 12,2 C 93 % 1010,7 hPa 0,0 l/m 8,5 km/h (2 Bft) S-SO 150 0 min 0,0 UV-I 10 W/m 12,1 C 11,9 C 14,5 km/h (3 Bft)
21.10.2022 09:57 13,1 C 12,2 C 93 % 1010,7 hPa 0,2 l/m 7,9 km/h (2 Bft) S-SO 149 0 min 0,0 UV-I 12 W/m 12,0 C 12,2 C 12,9 km/h (3 Bft)
21.10.2022 10:00 13,1 C 12,2 C 93 % 1010,7 hPa 0,0 l/m 8,2 km/h (2 Bft) S-SO 158 0 min 0,0 UV-I 12 W/m 12,0 C 12,0 C 14,5 km/h (3 Bft)
21.10.2022 10:03 13,2 C 12,2 C 93 % 1010,7 hPa 0,0 l/m 7,8 km/h (2 Bft) S 172 0 min 0,0 UV-I 11 W/m 12,1 C 12,3 C 12,9 km/h (3 Bft)
21.10.2022 10:06 13,2 C 12,2 C 93 % 1010,7 hPa 0,2 l/m 8,1 km/h (2 Bft) SO 143 0 min 0,0 UV-I 13 W/m 12,1 C 12,2 C 12,9 km/h (3 Bft)
21.10.2022 10:09 13,2 C 12,2 C 92 % 1010,5 hPa 0,0 l/m 4,2 km/h (1 Bft) S-SO 153 0 min 0,0 UV-I 15 W/m 11,9 C 13,2 C 8,0 km/h (2 Bft)
21.10.2022 10:12 13,2 C 12,2 C 92 % 1010,6 hPa 0,0 l/m 4,2 km/h (1 Bft) SO 134 0 min 0,0 UV-I 16 W/m 11,9 C 13,2 C 6,4 km/h (2 Bft)
21.10.2022 10:15 13,1 C 12,2 C 92 % 1010,6 hPa 0,2 l/m 4,1 km/h (1 Bft) SO 134 0 min 0,0 UV-I 16 W/m 11,8 C 13,1 C 8,0 km/h (2 Bft)
21.10.2022 10:18 13,1 C 12,2 C 92 % 1010,5 hPa 0,0 l/m 4,5 km/h (1 Bft) SO 125 0 min 0,0 UV-I 16 W/m 11,8 C 13,1 C 6,4 km/h (2 Bft)
21.10.2022 10:21 13,0 C 12,2 C 93 % 1010,5 hPa 0,2 l/m 4,6 km/h (1 Bft) SO 126 0 min 0,0 UV-I 18 W/m 11,9 C 13,0 C 6,4 km/h (2 Bft)
21.10.2022 10:24 13,0 C 12,2 C 93 % 1010,4 hPa 0,0 l/m 4,2 km/h (1 Bft) SO 128 0 min 0,0 UV-I 19 W/m 11,9 C 13,0 C 8,0 km/h (2 Bft)
21.10.2022 10:27 13,0 C 12,2 C 93 % 1010,5 hPa 0,0 l/m 4,6 km/h (1 Bft) O-SO 123 0 min 0,0 UV-I 20 W/m 11,9 C 13,0 C 8,0 km/h (2 Bft)
21.10.2022 10:30 13,0 C 12,2 C 93 % 1010,3 hPa 0,0 l/m 3,8 km/h (1 Bft) O-SO 123 0 min 0,0 UV-I 21 W/m 11,9 C 13,0 C 6,4 km/h (2 Bft)
21.10.2022 10:33 12,9 C 12,2 C 93 % 1010,2 hPa 0,2 l/m 1,8 km/h (1 Bft) O-SO 123 0 min 0,0 UV-I 23 W/m 11,8 C 12,9 C 4,8 km/h (1 Bft)
21.10.2022 10:36 12,9 C 12,8 C 93 % 1010,1 hPa 0,0 l/m 3,0 km/h (1 Bft) O-SO 123 0 min 0,0 UV-I 25 W/m 11,8 C 12,9 C 4,8 km/h (1 Bft)
21.10.2022 10:39 12,9 C 12,8 C 93 % 1009,8 hPa 0,0 l/m 8,0 km/h (2 Bft) O 88 0 min 0,0 UV-I 26 W/m 11,8 C 11,9 C 14,5 km/h (3 Bft)
21.10.2022 10:42 12,9 C 12,2 C 93 % 1009,9 hPa 0,0 l/m 6,6 km/h (2 Bft) SO 130 0 min 0,0 UV-I 31 W/m 11,8 C 12,8 C 12,9 km/h (3 Bft)
21.10.2022 10:45 12,9 C 12,2 C 93 % 1010,2 hPa 0,2 l/m 5,9 km/h (2 Bft) S 172 0 min 0,0 UV-I 39 W/m 11,8 C 12,9 C 9,7 km/h (2 Bft)
21.10.2022 10:48 12,9 C 12,8 C 93 % 1010,4 hPa 0,0 l/m 6,9 km/h (2 Bft) S 186 0 min 0,0 UV-I 46 W/m 11,8 C 12,6 C 11,3 km/h (2 Bft)
21.10.2022 10:51 13,0 C 12,8 C 94 % 1010,4 hPa 0,0 l/m 4,6 km/h (1 Bft) S-SW 199 0 min 0,0 UV-I 49 W/m 12,1 C 13,0 C 9,7 km/h (2 Bft)
21.10.2022 10:54 13,0 C 12,8 C 93 % 1010,4 hPa 0,0 l/m 5,8 km/h (2 Bft) S-SW 197 0 min 0,0 UV-I 49 W/m 11,9 C 13,0 C 8,0 km/h (2 Bft)
21.10.2022 10:57 13,0 C 12,8 C 93 % 1010,4 hPa 0,0 l/m 4,4 km/h (1 Bft) S 178 0 min 0,0 UV-I 47 W/m 11,9 C 13,0 C 8,0 km/h (2 Bft)
21.10.2022 11:00 13,1 C 12,8 C 93 % 1010,5 hPa 0,0 l/m 3,6 km/h (1 Bft) S 178 0 min 0,0 UV-I 47 W/m 12,0 C 13,1 C 4,8 km/h (1 Bft)
21.10.2022 11:03 13,1 C 12,8 C 93 % 1010,5 hPa 0,0 l/m 1,6 km/h (1 Bft) S 178 0 min 0,0 UV-I 46 W/m 12,0 C 13,1 C 3,2 km/h (1 Bft)
21.10.2022 11:06 13,2 C 12,8 C 93 % 1010,5 hPa 0,0 l/m 0,7 km/h (0 Bft) S 178 0 min 0,0 UV-I 42 W/m 12,1 C 13,2 C 3,2 km/h (1 Bft)
21.10.2022 11:09 13,2 C 12,8 C 93 % 1010,5 hPa 0,0 l/m 0,0 km/h (0 Bft) S 178 0 min 0,0 UV-I 41 W/m 12,1 C 13,2 C 1,6 km/h (1 Bft)
21.10.2022 11:12 13,2 C 12,8 C 93 % 1010,5 hPa 0,0 l/m 0,0 km/h (0 Bft) S 178 0 min 0,0 UV-I 37 W/m 12,1 C 13,2 C 0,0 km/h (0 Bft)
21.10.2022 11:15 13,2 C 12,8 C 93 % 1010,5 hPa 0,0 l/m 0,0 km/h (0 Bft) S 178 0 min 0,0 UV-I 33 W/m 12,1 C 13,2 C 1,6 km/h (1 Bft)
21.10.2022 11:18 13,2 C 13,3 C 93 % 1010,6 hPa 0,0 l/m 0,0 km/h (0 Bft) S 178 0 min 0,0 UV-I 33 W/m 12,1 C 13,2 C 0,0 km/h (0 Bft)
21.10.2022 11:21 13,2 C 12,8 C 93 % 1010,7 hPa 0,0 l/m 0,7 km/h (0 Bft) S 178 0 min 0,0 UV-I 29 W/m 12,1 C 13,2 C 1,6 km/h (1 Bft)
21.10.2022 11:24 13,2 C 12,8 C 93 % 1010,7 hPa 0,0 l/m 1,5 km/h (1 Bft) S 178 0 min 0,0 UV-I 25 W/m 12,1 C 13,2 C 3,2 km/h (1 Bft)
21.10.2022 11:27 13,2 C 12,8 C 93 % 1010,7 hPa 0,0 l/m 2,2 km/h (1 Bft) S 178 0 min 0,0 UV-I 28 W/m 12,1 C 13,2 C 4,8 km/h (1 Bft)
21.10.2022 11:30 13,2 C 12,8 C 93 % 1010,8 hPa 0,0 l/m 3,3 km/h (1 Bft) S 177 0 min 0,0 UV-I 30 W/m 12,1 C 13,2 C 4,8 km/h (1 Bft)
21.10.2022 11:33 13,3 C 12,8 C 93 % 1010,8 hPa 0,0 l/m 1,5 km/h (1 Bft) S 178 0 min 0,0 UV-I 36 W/m 12,2 C 13,3 C 3,2 km/h (1 Bft)
21.10.2022 11:36 13,3 C 12,8 C 93 % 1010,8 hPa 0,0 l/m 2,7 km/h (1 Bft) S 177 0 min 0,0 UV-I 35 W/m 12,2 C 13,3 C 4,8 km/h (1 Bft)
21.10.2022 11:39 13,3 C 12,8 C 93 % 1010,8 hPa 0,0 l/m 3,0 km/h (1 Bft) S 178 0 min 0,0 UV-I 41 W/m 12,2 C 13,3 C 6,4 km/h (2 Bft)
21.10.2022 11:42 13,3 C 12,8 C 93 % 1010,9 hPa 0,2 l/m 3,3 km/h (1 Bft) S 178 0 min 0,0 UV-I 48 W/m 12,2 C 13,3 C 6,4 km/h (2 Bft)
21.10.2022 11:45 13,2 C 12,8 C 93 % 1010,8 hPa 0,0 l/m 6,3 km/h (2 Bft) S 181 0 min 0,0 UV-I 44 W/m 12,1 C 13,2 C 12,9 km/h (3 Bft)
21.10.2022 11:48 13,2 C 12,8 C 93 % 1010,9 hPa 0,0 l/m 5,1 km/h (1 Bft) S 187 0 min 0,0 UV-I 54 W/m 12,1 C 13,2 C 8,0 km/h (2 Bft)
21.10.2022 11:51 13,3 C 12,8 C 93 % 1010,8 hPa 0,2 l/m 5,4 km/h (1 Bft) S 181 0 min 0,0 UV-I 57 W/m 12,2 C 13,3 C 9,7 km/h (2 Bft)
21.10.2022 11:54 13,3 C 12,8 C 93 % 1010,7 hPa 0,0 l/m 4,2 km/h (1 Bft) S 175 0 min 0,0 UV-I 66 W/m 12,2 C 13,3 C 6,4 km/h (2 Bft)
21.10.2022 11:57 13,3 C 12,8 C 93 % 1010,9 hPa 0,0 l/m 8,0 km/h (2 Bft) S-SO 163 0 min 0,0 UV-I 60 W/m 12,2 C 12,3 C 12,9 km/h (3 Bft)
21.10.2022 12:00 13,2 C 12,8 C 93 % 1010,9 hPa 0,0 l/m 9,1 km/h (2 Bft) S 188 0 min 0,0 UV-I 52 W/m 12,1 C 11,6 C 12,9 km/h (3 Bft)
21.10.2022 12:03 13,2 C 12,8 C 93 % 1011,0 hPa 0,0 l/m 11,6 km/h (2 Bft) S 179 0 min 0,0 UV-I 49 W/m 12,1 C 10,4 C 25,7 km/h (4 Bft)
21.10.2022 12:06 13,3 C 12,8 C 93 % 1010,9 hPa 0,0 l/m 13,5 km/h (3 Bft) S-SW 192 0 min 0,0 UV-I 47 W/m 12,2 C 9,7 C 24,1 km/h (4 Bft)
21.10.2022 12:09 13,3 C 12,8 C 93 % 1011,0 hPa 0,2 l/m 9,5 km/h (2 Bft) S-SW 211 0 min 0,3 UV-I 70 W/m 12,2 C 11,5 C 16,1 km/h (3 Bft)
21.10.2022 12:12 13,3 C 13,3 C 93 % 1011,0 hPa 0,0 l/m 11,9 km/h (2 Bft) S 173 0 min 0,8 UV-I 127 W/m 12,2 C 10,4 C 19,3 km/h (3 Bft)
21.10.2022 12:15 13,4 C 13,3 C 93 % 1011,1 hPa 0,0 l/m 12,8 km/h (3 Bft) S-SW 204 0 min 0,8 UV-I 117 W/m 12,3 C 10,1 C 17,7 km/h (3 Bft)
21.10.2022 12:18 13,4 C 13,3 C 93 % 1011,0 hPa 0,0 l/m 13,6 km/h (3 Bft) S-SW 208 0 min 0,6 UV-I 93 W/m 12,3 C 9,8 C 22,5 km/h (4 Bft)
21.10.2022 12:21 13,5 C 13,3 C 93 % 1011,0 hPa 0,0 l/m 9,6 km/h (2 Bft) SW 215 0 min 0,5 UV-I 78 W/m 12,4 C 11,7 C 16,1 km/h (3 Bft)
21.10.2022 12:24 13,5 C 13,3 C 93 % 1011,0 hPa 0,0 l/m 11,0 km/h (2 Bft) S-SO 154 0 min 0,5 UV-I 79 W/m 12,4 C 11,0 C 17,7 km/h (3 Bft)
21.10.2022 12:27 13,5 C 13,3 C 93 % 1011,0 hPa 0,0 l/m 10,0 km/h (2 Bft) S-SW 208 0 min 0,8 UV-I 113 W/m 12,4 C 11,5 C 17,7 km/h (3 Bft)
21.10.2022 12:30 13,6 C 13,3 C 93 % 1011,0 hPa 0,0 l/m 9,2 km/h (2 Bft) S-SW 208 0 min 0,9 UV-I 136 W/m 12,5 C 12,0 C 14,5 km/h (3 Bft)
21.10.2022 12:33 13,7 C 13,9 C 93 % 1011,0 hPa 0,0 l/m 9,5 km/h (2 Bft) S 186 0 min 1,0 UV-I 139 W/m 12,6 C 11,9 C 17,7 km/h (3 Bft)
21.10.2022 12:36 13,7 C 13,3 C 92 % 1011,0 hPa 0,0 l/m 12,8 km/h (3 Bft) S-SO 157 0 min 0,8 UV-I 120 W/m 12,4 C 10,4 C 20,9 km/h (4 Bft)
21.10.2022 12:39 13,7 C 13,3 C 92 % 1011,0 hPa 0,0 l/m 11,3 km/h (2 Bft) S 176 0 min 0,6 UV-I 99 W/m 12,4 C 11,1 C 17,7 km/h (3 Bft)
21.10.2022 12:42 13,8 C 13,3 C 92 % 1010,9 hPa 0,0 l/m 7,7 km/h (2 Bft) S-SW 202 0 min 0,7 UV-I 108 W/m 12,5 C 13,0 C 12,9 km/h (3 Bft)
21.10.2022 12:45 13,8 C 13,3 C 92 % 1010,9 hPa 0,0 l/m 14,0 km/h (3 Bft) S 170 0 min 0,8 UV-I 123 W/m 12,5 C 10,1 C 22,5 km/h (4 Bft)
21.10.2022 12:48 13,9 C 13,9 C 92 % 1011,0 hPa 0,0 l/m 8,6 km/h (2 Bft) S 175 0 min 1,0 UV-I 160 W/m 12,6 C 12,6 C 16,1 km/h (3 Bft)
21.10.2022 12:51 13,9 C 14,4 C 91 % 1011,0 hPa 0,0 l/m 11,5 km/h (2 Bft) S-SW 192 0 min 1,2 UV-I 212 W/m 12,5 C 11,2 C 16,1 km/h (3 Bft)
21.10.2022 12:54 14,1 C 15,0 C 92 % 1011,0 hPa 0,0 l/m 13,0 km/h (3 Bft) S-SW 207 0 min 1,5 UV-I 281 W/m 12,8 C 10,8 C 24,1 km/h (4 Bft)
21.10.2022 12:57 14,4 C 16,1 C 92 % 1011,0 hPa 0,0 l/m 10,4 km/h (2 Bft) S 183 3 min 2,0 UV-I 407 W/m 13,1 C 12,3 C 16,1 km/h (3 Bft)
21.10.2022 13:00 14,8 C 18,3 C 92 % 1011,0 hPa 0,0 l/m 8,6 km/h (2 Bft) S 171 3 min 2,3 UV-I 550 W/m 13,5 C 13,6 C 12,9 km/h (3 Bft)
21.10.2022 13:03 15,1 C 18,9 C 91 % 1010,9 hPa 0,0 l/m 14,7 km/h (3 Bft) S 177 3 min 2,4 UV-I 521 W/m 13,6 C 11,4 C 24,1 km/h (4 Bft)
21.10.2022 13:06 15,3 C 19,4 C 91 % 1010,9 hPa 0,0 l/m 9,8 km/h (2 Bft) SW 225 3 min 2,2 UV-I 485 W/m 13,8 C 13,5 C 17,7 km/h (3 Bft)
21.10.2022 13:09 15,2 C 18,3 C 89 % 1010,8 hPa 0,0 l/m 15,0 km/h (3 Bft) S-SW 204 3 min 2,1 UV-I 485 W/m 13,4 C 11,4 C 22,5 km/h (4 Bft)
21.10.2022 13:12 15,2 C 18,9 C 89 % 1010,7 hPa 0,0 l/m 16,5 km/h (3 Bft) S 188 3 min 2,0 UV-I 347 W/m 13,4 C 11,0 C 25,7 km/h (4 Bft)
21.10.2022 13:15 15,2 C 18,9 C 88 % 1010,7 hPa 0,0 l/m 19,3 km/h (3 Bft) S 178 3 min 2,3 UV-I 474 W/m 13,2 C 10,2 C 27,4 km/h (4 Bft)
21.10.2022 13:18 15,3 C 18,9 C 88 % 1010,8 hPa 0,0 l/m 17,3 km/h (3 Bft) S 170 3 min 2,4 UV-I 492 W/m 13,3 C 10,9 C 35,4 km/h (5 Bft)
21.10.2022 13:21 15,7 C 21,1 C 88 % 1010,7 hPa 0,0 l/m 13,8 km/h (3 Bft) S-SW 202 3 min 2,7 UV-I 589 W/m 13,7 C 12,4 C 27,4 km/h (4 Bft)
21.10.2022 13:24 15,6 C 19,4 C 86 % 1010,7 hPa 0,0 l/m 19,8 km/h (3 Bft) S 182 3 min 2,2 UV-I 654 W/m 13,3 C 10,6 C 29,0 km/h (5 Bft)
21.10.2022 13:27 15,4 C 16,7 C 86 % 1010,6 hPa 0,0 l/m 17,2 km/h (3 Bft) S-SW 193 0 min 1,4 UV-I 239 W/m 13,1 C 11,0 C 30,6 km/h (5 Bft)
21.10.2022 13:30 15,2 C 16,1 C 86 % 1010,6 hPa 0,0 l/m 16,8 km/h (3 Bft) S-SW 201 0 min 1,3 UV-I 213 W/m 12,9 C 10,9 C 24,1 km/h (4 Bft)
21.10.2022 13:33 15,1 C 15,0 C 86 % 1010,6 hPa 0,0 l/m 17,3 km/h (3 Bft) S-SO 167 0 min 1,0 UV-I 162 W/m 12,8 C 10,6 C 25,7 km/h (4 Bft)
21.10.2022 13:36 15,1 C 15,0 C 87 % 1010,7 hPa 0,0 l/m 13,1 km/h (3 Bft) S-SW 206 0 min 1,0 UV-I 140 W/m 13,0 C 12,0 C 22,5 km/h (4 Bft)
21.10.2022 13:39 15,0 C 15,0 C 87 % 1010,8 hPa 0,0 l/m 18,1 km/h (3 Bft) S-SW 196 0 min 1,0 UV-I 135 W/m 12,9 C 10,3 C 27,4 km/h (4 Bft)
21.10.2022 13:42 14,9 C 15,0 C 87 % 1010,8 hPa 0,0 l/m 18,2 km/h (3 Bft) S-SW 201 0 min 1,0 UV-I 140 W/m 12,8 C 10,1 C 27,4 km/h (4 Bft)
21.10.2022 13:45 14,9 C 15,0 C 87 % 1010,7 hPa 0,0 l/m 14,3 km/h (3 Bft) S-SO 161 0 min 1,1 UV-I 156 W/m 12,8 C 11,3 C 27,4 km/h (4 Bft)
21.10.2022 13:48 14,9 C 15,0 C 87 % 1010,8 hPa 0,0 l/m 13,3 km/h (3 Bft) S-SW 196 0 min 1,0 UV-I 141 W/m 12,8 C 11,7 C 22,5 km/h (4 Bft)
21.10.2022 13:51 14,9 C 15,0 C 87 % 1010,7 hPa 0,0 l/m 14,7 km/h (3 Bft) S 184 0 min 1,2 UV-I 181 W/m 12,8 C 11,2 C 24,1 km/h (4 Bft)
21.10.2022 13:54 15,1 C 15,6 C 87 % 1010,7 hPa 0,0 l/m 13,0 km/h (3 Bft) S-SW 205 0 min 1,3 UV-I 207 W/m 13,0 C 12,0 C 22,5 km/h (4 Bft)
21.10.2022 13:57 15,1 C 15,6 C 86 % 1010,7 hPa 0,0 l/m 18,4 km/h (3 Bft) S-SW 198 0 min 1,4 UV-I 225 W/m 12,8 C 10,3 C 27,4 km/h (4 Bft)
21.10.2022 14:00 15,1 C 15,0 C 86 % 1010,6 hPa 0,0 l/m 17,1 km/h (3 Bft) S-SO 163 0 min 1,3 UV-I 182 W/m 12,8 C 10,7 C 30,6 km/h (5 Bft)
21.10.2022 14:03 15,1 C 15,0 C 86 % 1010,7 hPa 0,0 l/m 15,1 km/h (3 Bft) S 175 0 min 1,1 UV-I 176 W/m 12,8 C 11,3 C 25,7 km/h (4 Bft)
21.10.2022 14:06 15,1 C 15,6 C 87 % 1010,6 hPa 0,0 l/m 16,3 km/h (3 Bft) S-SW 202 0 min 1,3 UV-I 215 W/m 13,0 C 10,9 C 27,4 km/h (4 Bft)
21.10.2022 14:09 15,1 C 15,6 C 86 % 1010,6 hPa 0,0 l/m 15,8 km/h (3 Bft) S 178 0 min 1,2 UV-I 225 W/m 12,8 C 11,1 C 25,7 km/h (4 Bft)
21.10.2022 14:12 15,2 C 15,6 C 86 % 1010,7 hPa 0,0 l/m 16,5 km/h (3 Bft) S 170 0 min 1,3 UV-I 231 W/m 12,9 C 11,0 C 22,5 km/h (4 Bft)
21.10.2022 14:15 15,3 C 16,1 C 86 % 1010,7 hPa 0,0 l/m 11,4 km/h (2 Bft) S-SW 192 0 min 1,3 UV-I 234 W/m 13,0 C 12,9 C 20,9 km/h (4 Bft)
21.10.2022 14:18 15,3 C 16,7 C 86 % 1010,6 hPa 0,0 l/m 13,0 km/h (3 Bft) S 169 0 min 1,3 UV-I 249 W/m 13,0 C 12,2 C 20,9 km/h (4 Bft)
21.10.2022 14:21 15,5 C 17,8 C 86 % 1010,6 hPa 0,0 l/m 10,9 km/h (2 Bft) SW 225 3 min 1,5 UV-I 302 W/m 13,2 C 13,3 C 16,1 km/h (3 Bft)
21.10.2022 14:24 15,5 C 17,2 C 86 % 1010,5 hPa 0,0 l/m 10,2 km/h (2 Bft) S-SO 147 0 min 1,4 UV-I 203 W/m 13,2 C 13,6 C 14,5 km/h (3 Bft)
21.10.2022 14:27 15,4 C 15,6 C 86 % 1010,6 hPa 0,0 l/m 15,0 km/h (3 Bft) S-SW 213 0 min 1,1 UV-I 107 W/m 13,1 C 11,7 C 20,9 km/h (4 Bft)
21.10.2022 14:30 15,2 C 15,6 C 86 % 1010,6 hPa 0,0 l/m 13,2 km/h (3 Bft) S 174 0 min 1,0 UV-I 117 W/m 12,9 C 12,1 C 22,5 km/h (4 Bft)
21.10.2022 14:33 15,2 C 15,6 C 86 % 1010,6 hPa 0,0 l/m 11,7 km/h (2 Bft) S-SW 193 0 min 1,0 UV-I 110 W/m 12,9 C 12,6 C 20,9 km/h (4 Bft)
21.10.2022 14:36 15,2 C 15,6 C 86 % 1010,7 hPa 0,0 l/m 12,1 km/h (2 Bft) S 181 0 min 0,9 UV-I 102 W/m 12,9 C 12,5 C 20,9 km/h (4 Bft)
21.10.2022 14:39 15,2 C 15,0 C 86 % 1010,8 hPa 0,0 l/m 8,8 km/h (2 Bft) S 171 0 min 0,7 UV-I 91 W/m 12,9 C 13,9 C 12,9 km/h (3 Bft)
21.10.2022 14:42 15,2 C 15,0 C 86 % 1010,8 hPa 0,0 l/m 11,2 km/h (2 Bft) S 184 0 min 0,0 UV-I 41 W/m 12,9 C 12,8 C 20,9 km/h (4 Bft)
21.10.2022 14:45 15,1 C 15,0 C 87 % 1010,9 hPa 0,0 l/m 9,9 km/h (2 Bft) S 170 0 min 0,1 UV-I 45 W/m 13,0 C 13,3 C 22,5 km/h (4 Bft)
21.10.2022 14:48 15,0 C 15,0 C 87 % 1010,8 hPa 0,0 l/m 12,2 km/h (2 Bft) S 184 0 min 0,5 UV-I 62 W/m 12,9 C 12,2 C 22,5 km/h (4 Bft)
21.10.2022 14:51 15,0 C 15,0 C 87 % 1010,9 hPa 0,0 l/m 10,6 km/h (2 Bft) S-SO 159 0 min 0,1 UV-I 59 W/m 12,9 C 12,9 C 19,3 km/h (3 Bft)
21.10.2022 14:54 14,9 C 15,0 C 87 % 1010,7 hPa 0,0 l/m 10,0 km/h (2 Bft) S-SO 158 0 min 0,0 UV-I 52 W/m 12,8 C 13,0 C 17,7 km/h (3 Bft)
21.10.2022 14:57 14,9 C 15,0 C 87 % 1010,7 hPa 0,0 l/m 10,6 km/h (2 Bft) S-SO 167 0 min 0,1 UV-I 63 W/m 12,8 C 12,7 C 20,9 km/h (4 Bft)
21.10.2022 15:00 14,9 C 15,0 C 87 % 1010,8 hPa 0,0 l/m 11,8 km/h (2 Bft) S 170 0 min 0,6 UV-I 83 W/m 12,8 C 12,2 C 19,3 km/h (3 Bft)
21.10.2022 15:03 14,9 C 15,0 C 87 % 1010,7 hPa 0,0 l/m 12,0 km/h (2 Bft) S-SO 159 0 min 0,5 UV-I 69 W/m 12,8 C 12,2 C 20,9 km/h (4 Bft)
21.10.2022 15:09 14,9 C 15,0 C 87 % 1010,5 hPa 0,0 l/m 12,8 km/h (3 Bft) S-SO 150 0 min 0,7 UV-I 103 W/m 12,8 C 11,8 C 29,0 km/h (5 Bft)
21.10.2022 15:12 15,0 C 15,6 C 87 % 1010,4 hPa 0,0 l/m 14,1 km/h (3 Bft) S 172 0 min 1,0 UV-I 179 W/m 12,9 C 11,5 C 22,5 km/h (4 Bft)
21.10.2022 15:15 15,1 C 16,1 C 87 % 1010,4 hPa 0,0 l/m 12,2 km/h (2 Bft) S-SO 150 0 min 1,2 UV-I 215 W/m 13,0 C 12,3 C 19,3 km/h (3 Bft)
21.10.2022 15:18 15,2 C 17,2 C 87 % 1010,5 hPa 0,0 l/m 13,2 km/h (3 Bft) S 179 0 min 1,3 UV-I 279 W/m 13,0 C 12,1 C 20,9 km/h (4 Bft)
21.10.2022 15:21 15,4 C 18,9 C 87 % 1010,4 hPa 0,0 l/m 13,1 km/h (3 Bft) S-SW 193 3 min 1,6 UV-I 331 W/m 13,2 C 12,3 C 24,1 km/h (4 Bft)
21.10.2022 15:24 15,8 C 21,7 C 87 % 1010,4 hPa 0,0 l/m 9,6 km/h (2 Bft) SW 218 3 min 1,7 UV-I 437 W/m 13,6 C 14,2 C 14,5 km/h (3 Bft)
21.10.2022 15:27 15,9 C 21,1 C 85 % 1010,5 hPa 0,0 l/m 10,7 km/h (2 Bft) S 169 0 min 1,5 UV-I 256 W/m 13,4 C 13,8 C 16,1 km/h (3 Bft)
21.10.2022 15:30 15,8 C 20,0 C 85 % 1010,4 hPa 0,0 l/m 13,8 km/h (3 Bft) SO 146 0 min 1,3 UV-I 236 W/m 13,3 C 12,6 C 25,7 km/h (4 Bft)
21.10.2022 15:33 15,8 C 21,1 C 86 % 1010,4 hPa 0,0 l/m 14,4 km/h (3 Bft) S-SO 167 3 min 1,4 UV-I 308 W/m 13,5 C 12,4 C 27,4 km/h (4 Bft)
21.10.2022 15:36 15,8 C 22,2 C 85 % 1010,5 hPa 0,0 l/m 16,4 km/h (3 Bft) S-SO 167 3 min 1,6 UV-I 412 W/m 13,3 C 11,7 C 29,0 km/h (5 Bft)
21.10.2022 15:39 15,8 C 20,6 C 85 % 1010,3 hPa 0,0 l/m 15,3 km/h (3 Bft) S-SO 149 3 min 1,3 UV-I 422 W/m 13,3 C 12,1 C 27,4 km/h (4 Bft)
21.10.2022 15:42 15,7 C 17,8 C 86 % 1010,5 hPa 0,0 l/m 10,6 km/h (2 Bft) S-SO 165 0 min 1,2 UV-I 265 W/m 13,4 C 13,6 C 19,3 km/h (3 Bft)
21.10.2022 15:45 15,6 C 17,2 C 86 % 1010,5 hPa 0,0 l/m 11,1 km/h (2 Bft) S 183 0 min 0,9 UV-I 148 W/m 13,3 C 13,3 C 20,9 km/h (4 Bft)
21.10.2022 15:48 15,4 C 16,1 C 86 % 1010,6 hPa 0,0 l/m 14,7 km/h (3 Bft) S 187 0 min 0,7 UV-I 128 W/m 13,1 C 11,8 C 22,5 km/h (4 Bft)
21.10.2022 15:51 15,3 C 15,6 C 86 % 1010,6 hPa 0,0 l/m 17,3 km/h (3 Bft) S-SW 213 0 min 0,7 UV-I 120 W/m 13,0 C 10,9 C 25,7 km/h (4 Bft)
21.10.2022 15:54 15,3 C 15,6 C 86 % 1010,6 hPa 0,0 l/m 10,2 km/h (2 Bft) S-SW 202 0 min 0,6 UV-I 122 W/m 13,0 C 13,4 C 14,5 km/h (3 Bft)
21.10.2022 15:57 15,4 C 17,8 C 87 % 1010,5 hPa 0,0 l/m 13,4 km/h (3 Bft) SW 220 0 min 0,9 UV-I 162 W/m 13,2 C 12,2 C 22,5 km/h (4 Bft)
21.10.2022 16:00 15,6 C 21,1 C 86 % 1010,6 hPa 0,0 l/m 14,0 km/h (3 Bft) S 180 3 min 1,2 UV-I 406 W/m 13,3 C 12,2 C 20,9 km/h (4 Bft)
21.10.2022 16:03 15,8 C 22,2 C 86 % 1010,4 hPa 0,0 l/m 9,6 km/h (2 Bft) S-SW 207 3 min 1,3 UV-I 352 W/m 13,5 C 14,2 C 16,1 km/h (3 Bft)
21.10.2022 16:06 15,9 C 21,7 C 85 % 1010,4 hPa 0,0 l/m 14,2 km/h (3 Bft) S-SO 156 3 min 1,2 UV-I 323 W/m 13,4 C 12,5 C 22,5 km/h (4 Bft)
21.10.2022 16:09 15,7 C 18,9 C 85 % 1010,5 hPa 0,0 l/m 14,3 km/h (3 Bft) S 169 0 min 0,5 UV-I 189 W/m 13,2 C 12,3 C 24,1 km/h (4 Bft)
21.10.2022 16:12 15,5 C 17,2 C 85 % 1010,6 hPa 0,0 l/m 12,9 km/h (3 Bft) S-SO 164 0 min 0,7 UV-I 85 W/m 13,0 C 12,5 C 32,2 km/h (5 Bft)
21.10.2022 16:15 15,4 C 17,8 C 86 % 1010,6 hPa 0,0 l/m 18,5 km/h (3 Bft) S 186 0 min 0,8 UV-I 157 W/m 13,1 C 10,7 C 33,8 km/h (5 Bft)
21.10.2022 16:18 15,4 C 18,3 C 86 % 1010,6 hPa 0,0 l/m 17,5 km/h (3 Bft) S 181 0 min 1,0 UV-I 236 W/m 13,1 C 10,9 C 29,0 km/h (5 Bft)
21.10.2022 16:21 15,5 C 18,9 C 86 % 1010,6 hPa 0,0 l/m 16,2 km/h (3 Bft) S 175 0 min 0,9 UV-I 213 W/m 13,2 C 11,4 C 27,4 km/h (4 Bft)
21.10.2022 16:24 15,6 C 18,3 C 86 % 1010,8 hPa 0,0 l/m 13,3 km/h (3 Bft) S-SW 192 0 min 0,9 UV-I 217 W/m 13,3 C 12,5 C 24,1 km/h (4 Bft)
21.10.2022 16:27 15,3 C 16,7 C 85 % 1010,7 hPa 0,0 l/m 16,4 km/h (3 Bft) S-SW 207 0 min 0,7 UV-I 106 W/m 12,8 C 11,1 C 25,7 km/h (4 Bft)
21.10.2022 16:30 15,2 C 16,7 C 86 % 1010,7 hPa 0,0 l/m 13,9 km/h (3 Bft) S-SO 150 0 min 0,7 UV-I 135 W/m 12,9 C 11,8 C 24,1 km/h (4 Bft)
21.10.2022 16:33 15,2 C 17,8 C 86 % 1010,7 hPa 0,0 l/m 12,7 km/h (3 Bft) S 178 0 min 0,8 UV-I 224 W/m 12,9 C 12,2 C 19,3 km/h (3 Bft)
21.10.2022 16:36 15,3 C 17,2 C 86 % 1010,6 hPa 0,0 l/m 11,1 km/h (2 Bft) SW 217 0 min 0,8 UV-I 192 W/m 13,0 C 13,0 C 22,5 km/h (4 Bft)
21.10.2022 16:39 15,3 C 16,1 C 85 % 1010,6 hPa 0,0 l/m 16,5 km/h (3 Bft) S 179 0 min 0,8 UV-I 232 W/m 12,8 C 11,1 C 27,4 km/h (4 Bft)
21.10.2022 16:42 15,3 C 16,7 C 86 % 1010,7 hPa 0,0 l/m 12,8 km/h (3 Bft) S 186 0 min 0,8 UV-I 216 W/m 13,0 C 12,3 C 22,5 km/h (4 Bft)
21.10.2022 16:45 15,4 C 17,8 C 86 % 1010,6 hPa 0,0 l/m 10,7 km/h (2 Bft) S 175 0 min 0,7 UV-I 177 W/m 13,1 C 13,3 C 24,1 km/h (4 Bft)
21.10.2022 16:48 15,3 C 17,2 C 86 % 1010,7 hPa 0,0 l/m 11,6 km/h (2 Bft) S-SW 194 0 min 0,6 UV-I 114 W/m 13,0 C 12,8 C 24,1 km/h (4 Bft)
21.10.2022 16:51 15,2 C 15,6 C 86 % 1010,7 hPa 0,0 l/m 13,3 km/h (3 Bft) S 172 0 min 0,5 UV-I 66 W/m 12,9 C 12,0 C 19,3 km/h (3 Bft)
21.10.2022 16:54 15,1 C 15,0 C 86 % 1010,7 hPa 0,0 l/m 11,9 km/h (2 Bft) S 188 0 min 0,5 UV-I 75 W/m 12,8 C 12,4 C 19,3 km/h (3 Bft)
21.10.2022 16:57 14,9 C 15,0 C 86 % 1010,7 hPa 0,0 l/m 13,8 km/h (3 Bft) SO 145 0 min 0,2 UV-I 73 W/m 12,6 C 11,5 C 20,9 km/h (4 Bft)
21.10.2022 17:00 14,9 C 15,0 C 86 % 1010,7 hPa 0,0 l/m 9,8 km/h (2 Bft) S 175 0 min 0,0 UV-I 68 W/m 12,6 C 13,1 C 20,9 km/h (4 Bft)
21.10.2022 17:03 14,8 C 15,0 C 86 % 1010,7 hPa 0,0 l/m 11,3 km/h (2 Bft) S-SW 198 0 min 0,0 UV-I 75 W/m 12,5 C 12,3 C 19,3 km/h (3 Bft)
21.10.2022 17:06 14,9 C 15,0 C 86 % 1010,6 hPa 0,0 l/m 16,0 km/h (3 Bft) S 185 0 min 0,0 UV-I 84 W/m 12,6 C 10,7 C 24,1 km/h (4 Bft)
21.10.2022 17:09 14,8 C 15,0 C 86 % 1010,7 hPa 0,0 l/m 12,4 km/h (3 Bft) S-SW 194 0 min 0,0 UV-I 94 W/m 12,5 C 11,9 C 19,3 km/h (3 Bft)
21.10.2022 17:12 14,8 C 15,0 C 86 % 1010,7 hPa 0,0 l/m 17,1 km/h (3 Bft) S-SW 205 0 min 0,0 UV-I 80 W/m 12,5 C 10,3 C 27,4 km/h (4 Bft)
21.10.2022 17:15 14,8 C 15,0 C 86 % 1010,6 hPa 0,0 l/m 11,1 km/h (2 Bft) S-SW 199 0 min 0,0 UV-I 82 W/m 12,5 C 12,4 C 16,1 km/h (3 Bft)
21.10.2022 17:18 14,7 C 15,0 C 86 % 1010,6 hPa 0,0 l/m 11,5 km/h (2 Bft) S 182 0 min 0,0 UV-I 74 W/m 12,4 C 12,1 C 16,1 km/h (3 Bft)
21.10.2022 17:21 14,7 C 14,4 C 87 % 1010,8 hPa 0,0 l/m 9,8 km/h (2 Bft) S 186 0 min 0,0 UV-I 63 W/m 12,6 C 12,9 C 17,7 km/h (3 Bft)
21.10.2022 17:24 14,7 C 14,4 C 87 % 1010,8 hPa 0,0 l/m 12,3 km/h (3 Bft) S 177 0 min 0,0 UV-I 55 W/m 12,6 C 11,8 C 19,3 km/h (3 Bft)
21.10.2022 17:27 14,6 C 13,9 C 87 % 1010,8 hPa 0,0 l/m 11,4 km/h (2 Bft) S 183 0 min 0,0 UV-I 51 W/m 12,5 C 12,1 C 16,1 km/h (3 Bft)
21.10.2022 17:30 14,6 C 13,9 C 87 % 1010,8 hPa 0,0 l/m 12,0 km/h (2 Bft) S 187 0 min 0,0 UV-I 49 W/m 12,5 C 11,8 C 16,1 km/h (3 Bft)
21.10.2022 17:33 14,6 C 13,9 C 87 % 1011,0 hPa 0,0 l/m 9,6 km/h (2 Bft) S 171 0 min 0,0 UV-I 46 W/m 12,5 C 12,9 C 14,5 km/h (3 Bft)
21.10.2022 17:36 14,6 C 13,9 C 87 % 1010,9 hPa 0,0 l/m 10,1 km/h (2 Bft) S 180 0 min 0,0 UV-I 43 W/m 12,5 C 12,6 C 16,1 km/h (3 Bft)
21.10.2022 17:39 14,5 C 13,9 C 87 % 1010,9 hPa 0,0 l/m 9,9 km/h (2 Bft) S 169 0 min 0,0 UV-I 45 W/m 12,4 C 12,6 C 17,7 km/h (3 Bft)
21.10.2022 17:42 14,5 C 13,9 C 88 % 1010,8 hPa 0,0 l/m 8,5 km/h (2 Bft) S 173 0 min 0,0 UV-I 41 W/m 12,5 C 13,3 C 14,5 km/h (3 Bft)
21.10.2022 17:45 14,4 C 13,9 C 88 % 1010,8 hPa 0,0 l/m 11,8 km/h (2 Bft) S-SW 193 0 min 0,0 UV-I 38 W/m 12,4 C 11,7 C 17,7 km/h (3 Bft)
21.10.2022 17:48 14,5 C 13,9 C 88 % 1010,8 hPa 0,0 l/m 11,4 km/h (2 Bft) S-SW 202 0 min 0,0 UV-I 35 W/m 12,5 C 11,9 C 17,7 km/h (3 Bft)
21.10.2022 17:51 14,4 C 13,9 C 88 % 1010,8 hPa 0,0 l/m 9,1 km/h (2 Bft) S-SW 200 0 min 0,0 UV-I 30 W/m 12,4 C 12,9 C 12,9 km/h (3 Bft)
21.10.2022 17:54 14,4 C 13,3 C 88 % 1010,8 hPa 0,0 l/m 7,1 km/h (2 Bft) S 184 0 min 0,0 UV-I 27 W/m 12,4 C 14,0 C 12,9 km/h (3 Bft)
21.10.2022 17:57 14,3 C 13,3 C 88 % 1010,8 hPa 0,0 l/m 8,5 km/h (2 Bft) S 170 0 min 0,0 UV-I 24 W/m 12,3 C 13,1 C 12,9 km/h (3 Bft)
21.10.2022 18:00 14,2 C 13,3 C 88 % 1010,8 hPa 0,0 l/m 7,1 km/h (2 Bft) S-SO 157 0 min 0,0 UV-I 21 W/m 12,2 C 13,8 C 11,3 km/h (2 Bft)
21.10.2022 18:03 14,2 C 13,3 C 88 % 1010,8 hPa 0,0 l/m 10,5 km/h (2 Bft) S 173 0 min 0,0 UV-I 19 W/m 12,2 C 12,0 C 16,1 km/h (3 Bft)
21.10.2022 18:09 14,2 C 13,3 C 89 % 1010,9 hPa 0,0 l/m 8,8 km/h (2 Bft) S 181 0 min 0,0 UV-I 17 W/m 12,4 C 12,8 C 14,5 km/h (3 Bft)
21.10.2022 18:12 14,2 C 13,3 C 89 % 1010,9 hPa 0,0 l/m 9,9 km/h (2 Bft) S 171 0 min 0,0 UV-I 13 W/m 12,4 C 12,3 C 16,1 km/h (3 Bft)
21.10.2022 18:15 14,2 C 13,3 C 89 % 1011,0 hPa 0,0 l/m 7,8 km/h (2 Bft) S 171 0 min 0,0 UV-I 11 W/m 12,4 C 13,4 C 12,9 km/h (3 Bft)
21.10.2022 18:18 14,2 C 13,3 C 89 % 1011,1 hPa 0,0 l/m 8,7 km/h (2 Bft) S 174 0 min 0,0 UV-I 9 W/m 12,4 C 12,9 C 14,5 km/h (3 Bft)
21.10.2022 18:21 14,2 C 13,3 C 89 % 1011,1 hPa 0,0 l/m 7,9 km/h (2 Bft) S 179 0 min 0,0 UV-I 6 W/m 12,4 C 13,3 C 14,5 km/h (3 Bft)
21.10.2022 18:24 14,2 C 13,3 C 89 % 1011,1 hPa 0,0 l/m 6,2 km/h (2 Bft) S 173 0 min 0,0 UV-I 5 W/m 12,4 C 14,2 C 11,3 km/h (2 Bft)
21.10.2022 18:27 14,1 C 13,3 C 89 % 1011,0 hPa 0,0 l/m 7,5 km/h (2 Bft) S 175 0 min 0,0 UV-I 5 W/m 12,3 C 13,4 C 12,9 km/h (3 Bft)
21.10.2022 18:30 14,2 C 13,3 C 89 % 1011,0 hPa 0,0 l/m 8,0 km/h (2 Bft) S 172 0 min 0,0 UV-I 0 W/m 12,4 C 13,3 C 12,9 km/h (3 Bft)
21.10.2022 18:33 14,1 C 13,3 C 89 % 1010,9 hPa 0,0 l/m 9,2 km/h (2 Bft) S 173 0 min 0,0 UV-I 0 W/m 12,3 C 12,5 C 16,1 km/h (3 Bft)
21.10.2022 18:36 14,1 C 13,3 C 89 % 1010,9 hPa 0,0 l/m 7,8 km/h (2 Bft) S-SW 193 0 min 0,0 UV-I 0 W/m 12,3 C 13,3 C 14,5 km/h (3 Bft)
21.10.2022 18:39 14,1 C 12,8 C 89 % 1010,8 hPa 0,0 l/m 7,7 km/h (2 Bft) S 177 0 min 0,0 UV-I 0 W/m 12,3 C 13,3 C 11,3 km/h (2 Bft)
21.10.2022 18:42 13,9 C 12,8 C 89 % 1010,8 hPa 0,0 l/m 8,7 km/h (2 Bft) S 182 0 min 0,0 UV-I 0 W/m 12,1 C 12,6 C 16,1 km/h (3 Bft)
21.10.2022 18:45 13,9 C 12,8 C 89 % 1010,9 hPa 0,0 l/m 10,4 km/h (2 Bft) S 191 0 min 0,0 UV-I 0 W/m 12,1 C 11,7 C 17,7 km/h (3 Bft)
21.10.2022 18:48 13,9 C 12,8 C 89 % 1011,1 hPa 0,0 l/m 9,5 km/h (2 Bft) S-SW 194 0 min 0,0 UV-I 0 W/m 12,1 C 12,1 C 14,5 km/h (3 Bft)
21.10.2022 18:51 13,9 C 12,8 C 89 % 1011,1 hPa 0,0 l/m 10,2 km/h (2 Bft) S 171 0 min 0,0 UV-I 0 W/m 12,1 C 11,8 C 17,7 km/h (3 Bft)
21.10.2022 18:54 13,9 C 12,8 C 89 % 1011,1 hPa 0,0 l/m 9,1 km/h (2 Bft) S-SO 153 0 min 0,0 UV-I 0 W/m 12,1 C 12,4 C 17,7 km/h (3 Bft)
21.10.2022 18:57 13,9 C 12,8 C 89 % 1011,1 hPa 0,0 l/m 10,9 km/h (2 Bft) S-SO 163 0 min 0,0 UV-I 0 W/m 12,1 C 11,5 C 22,5 km/h (4 Bft)
21.10.2022 19:00 13,9 C 13,3 C 89 % 1011,1 hPa 0,0 l/m 9,6 km/h (2 Bft) S 177 0 min 0,0 UV-I 0 W/m 12,1 C 12,1 C 14,5 km/h (3 Bft)
21.10.2022 19:03 13,9 C 13,3 C 89 % 1011,2 hPa 0,0 l/m 10,2 km/h (2 Bft) S-SO 162 0 min 0,0 UV-I 0 W/m 12,1 C 11,8 C 16,1 km/h (3 Bft)
21.10.2022 19:06 14,0 C 13,3 C 89 % 1011,2 hPa 0,0 l/m 11,4 km/h (2 Bft) S-SO 157 0 min 0,0 UV-I 0 W/m 12,2 C 11,4 C 19,3 km/h (3 Bft)
21.10.2022 19:09 14,1 C 13,3 C 89 % 1011,3 hPa 0,0 l/m 11,2 km/h (2 Bft) S 172 0 min 0,0 UV-I 0 W/m 12,3 C 11,6 C 22,5 km/h (4 Bft)
21.10.2022 19:12 14,1 C 13,3 C 89 % 1011,4 hPa 0,0 l/m 10,4 km/h (2 Bft) S-SW 208 0 min 0,0 UV-I 0 W/m 12,3 C 11,9 C 17,7 km/h (3 Bft)
21.10.2022 19:15 14,1 C 13,3 C 88 % 1011,3 hPa 0,0 l/m 12,0 km/h (2 Bft) S-SO 166 0 min 0,0 UV-I 0 W/m 12,1 C 11,2 C 17,7 km/h (3 Bft)
21.10.2022 19:18 14,1 C 13,3 C 88 % 1011,3 hPa 0,0 l/m 9,0 km/h (2 Bft) S-SO 165 0 min 0,0 UV-I 0 W/m 12,1 C 12,6 C 16,1 km/h (3 Bft)
21.10.2022 19:21 14,1 C 13,3 C 88 % 1011,3 hPa 0,0 l/m 12,7 km/h (3 Bft) SO 146 0 min 0,0 UV-I 0 W/m 12,1 C 11,0 C 19,3 km/h (3 Bft)
21.10.2022 19:24 14,1 C 13,3 C 88 % 1011,3 hPa 0,0 l/m 11,7 km/h (2 Bft) S 178 0 min 0,0 UV-I 0 W/m 12,1 C 11,4 C 19,3 km/h (3 Bft)
21.10.2022 19:27 14,1 C 13,3 C 88 % 1011,3 hPa 0,0 l/m 10,0 km/h (2 Bft) S 171 0 min 0,0 UV-I 0 W/m 12,1 C 12,1 C 17,7 km/h (3 Bft)
21.10.2022 19:30 14,0 C 13,3 C 88 % 1011,3 hPa 0,0 l/m 11,5 km/h (2 Bft) S 188 0 min 0,0 UV-I 0 W/m 12,0 C 11,3 C 19,3 km/h (3 Bft)
21.10.2022 19:33 13,9 C 12,8 C 88 % 1011,4 hPa 0,0 l/m 8,6 km/h (2 Bft) S-SO 155 0 min 0,0 UV-I 0 W/m 11,9 C 12,6 C 14,5 km/h (3 Bft)
21.10.2022 19:36 13,9 C 12,8 C 88 % 1011,5 hPa 0,0 l/m 8,2 km/h (2 Bft) S 173 0 min 0,0 UV-I 0 W/m 11,9 C 12,8 C 12,9 km/h (3 Bft)
21.10.2022 19:39 13,9 C 12,8 C 89 % 1011,4 hPa 0,0 l/m 10,1 km/h (2 Bft) S 170 0 min 0,0 UV-I 0 W/m 12,1 C 11,9 C 16,1 km/h (3 Bft)
21.10.2022 19:42 13,9 C 12,8 C 89 % 1011,4 hPa 0,0 l/m 7,9 km/h (2 Bft) S-SW 205 0 min 0,0 UV-I 0 W/m 12,1 C 13,0 C 11,3 km/h (2 Bft)
21.10.2022 19:45 13,9 C 12,8 C 89 % 1011,4 hPa 0,0 l/m 9,5 km/h (2 Bft) S 173 0 min 0,0 UV-I 0 W/m 12,1 C 12,1 C 14,5 km/h (3 Bft)
21.10.2022 19:48 13,8 C 12,8 C 89 % 1011,5 hPa 0,0 l/m 9,4 km/h (2 Bft) S-SO 164 0 min 0,0 UV-I 0 W/m 12,0 C 12,1 C 17,7 km/h (3 Bft)
21.10.2022 19:51 13,8 C 12,8 C 89 % 1011,5 hPa 0,0 l/m 9,3 km/h (2 Bft) S-SO 158 0 min 0,0 UV-I 0 W/m 12,0 C 12,1 C 16,1 km/h (3 Bft)
21.10.2022 19:54 13,7 C 12,8 C 89 % 1011,4 hPa 0,0 l/m 9,0 km/h (2 Bft) S-SO 159 0 min 0,0 UV-I 0 W/m 11,9 C 12,2 C 14,5 km/h (3 Bft)
21.10.2022 19:57 13,7 C 12,8 C 89 % 1011,5 hPa 0,0 l/m 9,7 km/h (2 Bft) S-SO 168 0 min 0,0 UV-I 0 W/m 11,9 C 11,8 C 16,1 km/h (3 Bft)
21.10.2022 20:00 13,7 C 12,8 C 89 % 1011,6 hPa 0,0 l/m 9,5 km/h (2 Bft) S 182 0 min 0,0 UV-I 0 W/m 11,9 C 11,9 C 14,5 km/h (3 Bft)
21.10.2022 20:03 13,7 C 12,8 C 90 % 1011,6 hPa 0,0 l/m 9,7 km/h (2 Bft) S 178 0 min 0,0 UV-I 0 W/m 12,1 C 11,8 C 17,7 km/h (3 Bft)
21.10.2022 20:06 13,7 C 12,8 C 89 % 1011,6 hPa 0,0 l/m 8,9 km/h (2 Bft) S-SW 192 0 min 0,0 UV-I 0 W/m 11,9 C 12,2 C 16,1 km/h (3 Bft)
21.10.2022 20:09 13,7 C 12,8 C 90 % 1011,7 hPa 0,0 l/m 10,3 km/h (2 Bft) S 170 0 min 0,0 UV-I 0 W/m 12,1 C 11,5 C 17,7 km/h (3 Bft)
21.10.2022 20:12 13,7 C 12,8 C 90 % 1011,7 hPa 0,0 l/m 7,7 km/h (2 Bft) S 175 0 min 0,0 UV-I 0 W/m 12,1 C 12,9 C 12,9 km/h (3 Bft)
21.10.2022 20:15 13,7 C 12,8 C 90 % 1011,7 hPa 0,0 l/m 9,6 km/h (2 Bft) S 171 0 min 0,0 UV-I 0 W/m 12,1 C 11,9 C 17,7 km/h (3 Bft)
21.10.2022 20:18 13,7 C 12,8 C 90 % 1011,6 hPa 0,0 l/m 8,6 km/h (2 Bft) S 173 0 min 0,0 UV-I 0 W/m 12,1 C 12,4 C 14,5 km/h (3 Bft)
21.10.2022 20:21 13,8 C 12,8 C 90 % 1011,6 hPa 0,0 l/m 8,1 km/h (2 Bft) S 180 0 min 0,0 UV-I 0 W/m 12,2 C 12,8 C 14,5 km/h (3 Bft)
21.10.2022 20:24 13,7 C 12,8 C 90 % 1011,7 hPa 0,0 l/m 6,1 km/h (2 Bft) S-SO 159 0 min 0,0 UV-I 0 W/m 12,1 C 13,7 C 11,3 km/h (2 Bft)
21.10.2022 20:27 13,7 C 12,8 C 90 % 1012,3 hPa 0,0 l/m 8,0 km/h (2 Bft) S-SO 157 0 min 0,0 UV-I 0 W/m 12,1 C 12,7 C 11,3 km/h (2 Bft)
21.10.2022 20:30 13,7 C 12,8 C 90 % 1011,6 hPa 0,0 l/m 7,4 km/h (2 Bft) S-SW 200 0 min 0,0 UV-I 0 W/m 12,1 C 13,1 C 12,9 km/h (3 Bft)
21.10.2022 20:33 13,8 C 12,8 C 90 % 1011,7 hPa 0,0 l/m 9,9 km/h (2 Bft) S 179 0 min 0,0 UV-I 0 W/m 12,2 C 11,8 C 16,1 km/h (3 Bft)
21.10.2022 20:36 13,8 C 12,8 C 90 % 1011,7 hPa 0,0 l/m 9,4 km/h (2 Bft) S 186 0 min 0,0 UV-I 0 W/m 12,2 C 12,1 C 14,5 km/h (3 Bft)
21.10.2022 20:39 13,9 C 12,8 C 90 % 1011,6 hPa 0,0 l/m 12,5 km/h (3 Bft) S 185 0 min 0,0 UV-I 0 W/m 12,3 C 10,8 C 20,9 km/h (4 Bft)
21.10.2022 20:42 13,9 C 12,8 C 90 % 1011,6 hPa 0,0 l/m 9,0 km/h (2 Bft) S-SW 195 0 min 0,0 UV-I 0 W/m 12,3 C 12,4 C 16,1 km/h (3 Bft)
21.10.2022 20:45 13,9 C 12,8 C 90 % 1011,5 hPa 0,0 l/m 7,8 km/h (2 Bft) S-SO 160 0 min 0,0 UV-I 0 W/m 12,3 C 13,1 C 12,9 km/h (3 Bft)
21.10.2022 20:48 13,9 C 12,8 C 90 % 1011,5 hPa 0,0 l/m 6,5 km/h (2 Bft) S 184 0 min 0,0 UV-I 0 W/m 12,3 C 13,9 C 11,3 km/h (2 Bft)
21.10.2022 20:51 13,9 C 12,8 C 90 % 1011,4 hPa 0,0 l/m 8,0 km/h (2 Bft) S-SW 197 0 min 0,0 UV-I 0 W/m 12,3 C 12,9 C 12,9 km/h (3 Bft)
21.10.2022 20:54 13,9 C 12,8 C 90 % 1011,4 hPa 0,0 l/m 6,5 km/h (2 Bft) S 171 0 min 0,0 UV-I 0 W/m 12,3 C 13,9 C 9,7 km/h (2 Bft)
21.10.2022 20:57 13,9 C 12,8 C 90 % 1011,4 hPa 0,0 l/m 7,1 km/h (2 Bft) S-SO 166 0 min 0,0 UV-I 0 W/m 12,3 C 13,5 C 14,5 km/h (3 Bft)
21.10.2022 21:00 13,9 C 12,8 C 90 % 1011,3 hPa 0,0 l/m 7,4 km/h (2 Bft) S 178 0 min 0,0 UV-I 0 W/m 12,3 C 13,3 C 11,3 km/h (2 Bft)
21.10.2022 21:03 13,8 C 12,8 C 90 % 1011,3 hPa 0,0 l/m 6,3 km/h (2 Bft) S-SO 167 0 min 0,0 UV-I 0 W/m 12,2 C 13,8 C 9,7 km/h (2 Bft)
21.10.2022 21:06 13,8 C 12,8 C 91 % 1011,3 hPa 0,0 l/m 7,1 km/h (2 Bft) S 178 0 min 0,0 UV-I 0 W/m 12,4 C 13,4 C 16,1 km/h (3 Bft)
21.10.2022 21:09 13,8 C 12,8 C 91 % 1011,4 hPa 0,0 l/m 8,2 km/h (2 Bft) S 170 0 min 0,0 UV-I 0 W/m 12,4 C 12,7 C 14,5 km/h (3 Bft)
21.10.2022 21:12 13,9 C 12,8 C 91 % 1011,4 hPa 0,0 l/m 9,8 km/h (2 Bft) S-SO 162 0 min 0,0 UV-I 0 W/m 12,5 C 12,0 C 14,5 km/h (3 Bft)
21.10.2022 21:15 13,9 C 12,8 C 91 % 1011,6 hPa 0,0 l/m 9,1 km/h (2 Bft) S 173 0 min 0,0 UV-I 0 W/m 12,5 C 12,4 C 14,5 km/h (3 Bft)
21.10.2022 21:18 13,8 C 12,8 C 90 % 1011,5 hPa 0,0 l/m 8,6 km/h (2 Bft) S 180 0 min 0,0 UV-I 0 W/m 12,2 C 12,5 C 16,1 km/h (3 Bft)
21.10.2022 21:21 13,8 C 12,8 C 90 % 1011,5 hPa 0,0 l/m 8,8 km/h (2 Bft) S 173 0 min 0,0 UV-I 0 W/m 12,2 C 12,4 C 14,5 km/h (3 Bft)
21.10.2022 21:24 13,8 C 12,8 C 90 % 1011,5 hPa 0,0 l/m 8,5 km/h (2 Bft) S 182 0 min 0,0 UV-I 0 W/m 12,2 C 12,6 C 14,5 km/h (3 Bft)
21.10.2022 21:27 13,8 C 12,8 C 90 % 1011,5 hPa 0,0 l/m 7,7 km/h (2 Bft) S 178 0 min 0,0 UV-I 0 W/m 12,2 C 13,0 C 14,5 km/h (3 Bft)
21.10.2022 21:30 13,8 C 12,8 C 90 % 1011,6 hPa 0,0 l/m 10,2 km/h (2 Bft) S 178 0 min 0,0 UV-I 0 W/m 12,2 C 11,7 C 16,1 km/h (3 Bft)
21.10.2022 21:33 13,8 C 12,8 C 90 % 1011,6 hPa 0,0 l/m 9,0 km/h (2 Bft) S-SO 157 0 min 0,0 UV-I 0 W/m 12,2 C 12,3 C 16,1 km/h (3 Bft)
21.10.2022 21:36 13,8 C 12,8 C 90 % 1011,6 hPa 0,0 l/m 10,7 km/h (2 Bft) S-SW 194 0 min 0,0 UV-I 0 W/m 12,2 C 11,5 C 17,7 km/h (3 Bft)
21.10.2022 21:39 13,9 C 12,8 C 90 % 1011,7 hPa 0,0 l/m 9,7 km/h (2 Bft) S 177 0 min 0,0 UV-I 0 W/m 12,3 C 12,0 C 16,1 km/h (3 Bft)
21.10.2022 21:42 13,9 C 13,3 C 90 % 1011,6 hPa 0,0 l/m 8,9 km/h (2 Bft) S 175 0 min 0,0 UV-I 0 W/m 12,3 C 12,5 C 12,9 km/h (3 Bft)
21.10.2022 21:45 13,9 C 12,8 C 90 % 1011,7 hPa 0,0 l/m 9,5 km/h (2 Bft) S 178 0 min 0,0 UV-I 0 W/m 12,3 C 12,1 C 14,5 km/h (3 Bft)
21.10.2022 21:48 13,9 C 13,3 C 90 % 1011,8 hPa 0,0 l/m 8,9 km/h (2 Bft) S 178 0 min 0,0 UV-I 0 W/m 12,3 C 12,5 C 14,5 km/h (3 Bft)
21.10.2022 21:51 13,9 C 13,3 C 90 % 1011,8 hPa 0,0 l/m 9,1 km/h (2 Bft) S 176 0 min 0,0 UV-I 0 W/m 12,3 C 12,4 C 12,9 km/h (3 Bft)
21.10.2022 21:54 13,9 C 12,8 C 90 % 1011,8 hPa 0,0 l/m 6,9 km/h (2 Bft) S 183 0 min 0,0 UV-I 0 W/m 12,3 C 13,6 C 11,3 km/h (2 Bft)
21.10.2022 21:57 13,9 C 12,8 C 90 % 1011,8 hPa 0,0 l/m 5,1 km/h (1 Bft) S 180 0 min 0,0 UV-I 0 W/m 12,3 C 13,9 C 8,0 km/h (2 Bft)
21.10.2022 22:00 13,8 C 12,8 C 90 % 1011,8 hPa 0,0 l/m 6,6 km/h (2 Bft) S 181 0 min 0,0 UV-I 0 W/m 12,2 C 13,7 C 12,9 km/h (3 Bft)
21.10.2022 22:03 13,8 C 12,8 C 90 % 1011,9 hPa 0,0 l/m 7,8 km/h (2 Bft) S 178 0 min 0,0 UV-I 0 W/m 12,2 C 13,0 C 11,3 km/h (2 Bft)
21.10.2022 22:06 13,8 C 12,8 C 90 % 1011,9 hPa 0,0 l/m 6,7 km/h (2 Bft) S 173 0 min 0,0 UV-I 0 W/m 12,2 C 13,6 C 11,3 km/h (2 Bft)
21.10.2022 22:09 13,8 C 12,8 C 90 % 1011,9 hPa 0,0 l/m 5,5 km/h (1 Bft) S 174 0 min 0,0 UV-I 0 W/m 12,2 C 13,8 C 8,0 km/h (2 Bft)
21.10.2022 22:12 13,8 C 12,8 C 90 % 1011,8 hPa 0,0 l/m 4,2 km/h (1 Bft) S 171 0 min 0,0 UV-I 0 W/m 12,2 C 13,8 C 9,7 km/h (2 Bft)
21.10.2022 22:15 13,7 C 12,8 C 90 % 1011,8 hPa 0,0 l/m 2,2 km/h (1 Bft) S 171 0 min 0,0 UV-I 0 W/m 12,1 C 13,7 C 3,2 km/h (1 Bft)
21.10.2022 22:18 13,5 C 12,8 C 90 % 1011,7 hPa 0,0 l/m 3,2 km/h (1 Bft) S-SO 163 0 min 0,0 UV-I 0 W/m 11,9 C 13,5 C 6,4 km/h (2 Bft)
21.10.2022 22:21 13,4 C 12,8 C 91 % 1011,8 hPa 0,0 l/m 3,4 km/h (1 Bft) S-SO 163 0 min 0,0 UV-I 0 W/m 12,0 C 13,4 C 6,4 km/h (2 Bft)
21.10.2022 22:24 13,4 C 12,2 C 91 % 1011,8 hPa 0,0 l/m 2,8 km/h (1 Bft) S-SO 163 0 min 0,0 UV-I 0 W/m 12,0 C 13,4 C 6,4 km/h (2 Bft)
21.10.2022 22:27 13,3 C 12,2 C 91 % 1011,9 hPa 0,0 l/m 5,5 km/h (1 Bft) S 178 0 min 0,0 UV-I 0 W/m 11,9 C 13,3 C 14,5 km/h (3 Bft)
21.10.2022 22:30 13,6 C 12,8 C 92 % 1011,8 hPa 0,0 l/m 8,0 km/h (2 Bft) S 173 0 min 0,0 UV-I 0 W/m 12,3 C 12,6 C 14,5 km/h (3 Bft)
21.10.2022 22:33 13,6 C 12,8 C 91 % 1011,8 hPa 0,0 l/m 6,1 km/h (2 Bft) S-SO 160 0 min 0,0 UV-I 0 W/m 12,2 C 13,6 C 9,7 km/h (2 Bft)
21.10.2022 22:36 13,7 C 12,8 C 91 % 1011,9 hPa 0,0 l/m 6,5 km/h (2 Bft) S-SO 165 0 min 0,0 UV-I 0 W/m 12,3 C 13,7 C 12,9 km/h (3 Bft)
21.10.2022 22:39 13,7 C 12,8 C 91 % 1011,9 hPa 0,0 l/m 4,8 km/h (1 Bft) S-SW 206 0 min 0,0 UV-I 0 W/m 12,3 C 13,7 C 8,0 km/h (2 Bft)
21.10.2022 22:42 13,7 C 12,8 C 91 % 1011,9 hPa 0,0 l/m 5,4 km/h (1 Bft) S 185 0 min 0,0 UV-I 0 W/m 12,3 C 13,7 C 11,3 km/h (2 Bft)
21.10.2022 22:45 13,6 C 12,8 C 91 % 1011,9 hPa 0,0 l/m 4,0 km/h (1 Bft) S 186 0 min 0,0 UV-I 0 W/m 12,2 C 13,6 C 6,4 km/h (2 Bft)
21.10.2022 22:48 13,7 C 12,8 C 91 % 1011,9 hPa 0,0 l/m 5,0 km/h (1 Bft) S-SO 163 0 min 0,0 UV-I 0 W/m 12,3 C 13,7 C 8,0 km/h (2 Bft)
21.10.2022 22:51 13,7 C 12,8 C 91 % 1011,9 hPa 0,0 l/m 4,8 km/h (1 Bft) S 170 0 min 0,0 UV-I 0 W/m 12,3 C 13,7 C 8,0 km/h (2 Bft)
21.10.2022 22:54 13,7 C 12,8 C 91 % 1011,8 hPa 0,0 l/m 3,4 km/h (1 Bft) S 169 0 min 0,0 UV-I 0 W/m 12,3 C 13,7 C 6,4 km/h (2 Bft)
21.10.2022 22:57 13,7 C 12,8 C 91 % 1011,9 hPa 0,0 l/m 4,2 km/h (1 Bft) S-SO 166 0 min 0,0 UV-I 0 W/m 12,3 C 13,7 C 8,0 km/h (2 Bft)
21.10.2022 23:00 13,4 C 12,8 C 91 % 1012,0 hPa 0,0 l/m 5,1 km/h (1 Bft) S-SO 159 0 min 0,0 UV-I 0 W/m 12,0 C 13,4 C 6,4 km/h (2 Bft)
21.10.2022 23:03 13,3 C 12,8 C 91 % 1012,1 hPa 0,0 l/m 6,3 km/h (2 Bft) SO 139 0 min 0,0 UV-I 0 W/m 11,9 C 13,3 C 8,0 km/h (2 Bft)
21.10.2022 23:06 13,3 C 12,8 C 92 % 1012,3 hPa 0,0 l/m 6,9 km/h (2 Bft) SO 136 0 min 0,0 UV-I 0 W/m 12,0 C 13,0 C 12,9 km/h (3 Bft)
21.10.2022 23:09 13,4 C 12,8 C 92 % 1012,2 hPa 0,0 l/m 6,2 km/h (2 Bft) S-SO 152 0 min 0,0 UV-I 0 W/m 12,1 C 13,4 C 12,9 km/h (3 Bft)
21.10.2022 23:12 13,5 C 12,8 C 92 % 1012,2 hPa 0,0 l/m 5,3 km/h (1 Bft) S-SO 147 0 min 0,0 UV-I 0 W/m 12,2 C 13,5 C 8,0 km/h (2 Bft)
21.10.2022 23:15 13,5 C 12,8 C 92 % 1012,0 hPa 0,0 l/m 4,0 km/h (1 Bft) SO 140 0 min 0,0 UV-I 0 W/m 12,2 C 13,5 C 8,0 km/h (2 Bft)
21.10.2022 23:18 13,5 C 12,8 C 92 % 1012,1 hPa 0,0 l/m 4,1 km/h (1 Bft) SO 140 0 min 0,0 UV-I 0 W/m 12,2 C 13,5 C 6,4 km/h (2 Bft)
21.10.2022 23:21 13,5 C 12,8 C 92 % 1012,0 hPa 0,0 l/m 3,5 km/h (1 Bft) S-SO 154 0 min 0,0 UV-I 0 W/m 12,2 C 13,5 C 6,4 km/h (2 Bft)
21.10.2022 23:24 13,5 C 12,8 C 92 % 1011,9 hPa 0,0 l/m 3,9 km/h (1 Bft) S-SO 155 0 min 0,0 UV-I 0 W/m 12,2 C 13,5 C 4,8 km/h (1 Bft)
21.10.2022 23:27 13,5 C 12,8 C 92 % 1011,9 hPa 0,0 l/m 4,4 km/h (1 Bft) S 169 0 min 0,0 UV-I 0 W/m 12,2 C 13,5 C 8,0 km/h (2 Bft)
21.10.2022 23:30 13,4 C 12,2 C 92 % 1011,9 hPa 0,0 l/m 5,3 km/h (1 Bft) S-SO 167 0 min 0,0 UV-I 0 W/m 12,1 C 13,4 C 8,0 km/h (2 Bft)
21.10.2022 23:33 13,4 C 12,2 C 92 % 1011,8 hPa 0,0 l/m 5,0 km/h (1 Bft) S-SO 167 0 min 0,0 UV-I 0 W/m 12,1 C 13,4 C 6,4 km/h (2 Bft)
21.10.2022 23:36 13,4 C 12,2 C 92 % 1011,8 hPa 0,0 l/m 5,6 km/h (1 Bft) S 179 0 min 0,0 UV-I 0 W/m 12,1 C 13,4 C 8,0 km/h (2 Bft)
21.10.2022 23:39 13,4 C 11,7 C 92 % 1011,7 hPa 0,0 l/m 4,1 km/h (1 Bft) S 180 0 min 0,0 UV-I 0 W/m 12,1 C 13,4 C 6,4 km/h (2 Bft)
21.10.2022 23:42 13,3 C 11,7 C 92 % 1011,7 hPa 0,0 l/m 5,1 km/h (1 Bft) S 182 0 min 0,0 UV-I 0 W/m 12,0 C 13,3 C 8,0 km/h (2 Bft)
21.10.2022 23:45 13,2 C 11,7 C 92 % 1011,8 hPa 0,0 l/m 4,4 km/h (1 Bft) S 184 0 min 0,0 UV-I 0 W/m 11,9 C 13,2 C 6,4 km/h (2 Bft)
21.10.2022 23:48 13,2 C 11,7 C 92 % 1011,8 hPa 0,0 l/m 5,3 km/h (1 Bft) S 181 0 min 0,0 UV-I 0 W/m 11,9 C 13,2 C 9,7 km/h (2 Bft)
21.10.2022 23:51 13,1 C 11,7 C 92 % 1011,8 hPa 0,0 l/m 5,0 km/h (1 Bft) S 175 0 min 0,0 UV-I 0 W/m 11,8 C 13,1 C 6,4 km/h (2 Bft)
21.10.2022 23:54 13,1 C 11,7 C 92 % 1011,7 hPa 0,0 l/m 5,6 km/h (1 Bft) S 174 0 min 0,0 UV-I 0 W/m 11,8 C 13,1 C 9,7 km/h (2 Bft)
21.10.2022 23:57 13,2 C 11,7 C 92 % 1011,7 hPa 0,0 l/m 6,4 km/h (2 Bft) S 171 0 min 0,0 UV-I 0 W/m 11,9 C 13,2 C 11,3 km/h (2 Bft)
_ Min-Zeit 04:27 04:21 15:27 08:03 - 11:09 - - - - - 04:27 03:33 11:12
Minimum _ 11,9 C 10,6 C 85 % 1009,2 hPa - 0,0 km/h (0 Bft) - - - - - 10,7 C 7,8 C 0,0 km/h (0 Bft)
_ Max-Zeit 15:27 15:36 10:51 00:00 00:00 13:24 - - 12:57 13:21 13:24 13:06 18:24 13:18
Maximum _ 15,9 C 22,2 C 94 % 1013,2 hPa 0,2 l/m 19,8 km/h
S (3 Bft)
- - 3 min 2,7 UV-I 654 W/m 13,8 C 14,2 C 35,4 km/h
S-SO (5 Bft)
Durchschnitt _ 13,6 C 13,2 C 91 % 1011,0 hPa #4,2 l/m 9,3 km/h (2 Bft) S - #57 min. 1,1 UV-I 119 W/m 12,1 C 11,9 C 15,9 km/h (3 Bft)